GFSFLT2_prec_kuchsnow_120.txt.gz
Snowfall_Accumulation
0.0 0.2 0.2 0.3 0.1 0.0 0.0 0.0 0.0 0.0 0.0 0.0 0.0 0.0 0.0 0.0 0.0 0.0 0.0 0.0 0.0 0.0 0.0 0.0 0.0 0.0 0.0
0.1 0.9 1.6 1.0 0.4 0.1 0.0 0.0 0.0 0.0 0.0 0.0 0.0 0.0 0.0 0.0 0.0 0.0 0.0 0.0 0.0 0.0 0.0 0.0 0.0 0.0 0.0
0.5 0.9 0.5 0.2 0.1 0.1 0.0 0.0 0.0 0.0 0.0 0.0 0.0 0.0 0.0 0.0 0.0 0.0 0.0 0.0 0.0 0.0 0.0 0.0 0.0 0.0 0.0
0.3 0.8 0.7 0.2 0.2 0.1 0.1 0.0 0.0 0.0 0.0 0.0 0.0 0.0 0.0 0.0 0.0 0.0 0.0 0.0 0.0 0.0 0.0 0.0 0.0 0.0 0.0
2.0 1.3 0.4 0.1 0.1 0.0 0.0 0.0 0.2 0.0 0.0 0.0 0.0 0.0 0.0 0.0 0.0 0.0 0.0 0.0 0.0 0.0 0.0 0.0 0.0 0.0 0.0
3.7 0.5 0.0 0.0 0.0 0.0 1.8 1.2 1.2 0.0 0.1 0.1 0.0 0.0 0.0 0.0 0.0 0.0 0.0 0.0 0.0 0.0 0.0 0.0 0.0 0.0 0.0
0.1 0.0 0.1 0.2 2.4 2.6 0.7 1.4 1.1 0.0 0.2 0.6 0.0 0.0 0.0 0.0 0.0 0.0 0.0 0.0 0.0 0.0 0.0 0.0 0.0 0.0 0.0
0.0 0.1 0.5 0.3 0.3 1.4 1.5 0.9 0.3 0.1 0.1 2.0 0.1 0.1 0.0 0.0 0.0 0.0 0.0 0.0 0.0 0.0 0.0 0.0 0.0 0.0 0.0
0.2 0.1 0.0 0.0 0.0 1.0 2.1 2.5 1.6 0.0 0.0 0.7 0.2 0.0 0.0 0.0 0.0 0.0 0.0 0.0 0.0 0.0 0.0 0.0 0.0 0.0 0.0
0.0 0.0 0.0 0.0 0.0 0.1 2.3 8.4 3.9 3.2 0.0 3.8 1.1 1.1 6.8 0.5 0.0 0.0 0.0 0.0 0.0 0.0 0.0 0.0 0.0 0.3 0.6
0.0 0.0 0.0 0.0 0.1 0.1 0.7 6.5 11.6 7.5 0.0 6.9 9.5 3.9 8.0 3.3 0.3 0.0 0.0 0.0 0.9 0.7 0.3 0.6 0.6 0.7 2.3
0.0 0.1 0.2 0.2 0.1 0.1 0.2 0.7 1.6 5.9 1.9 3.5 16.3 6.1 10.8 6.8 0.8 0.1 0.0 0.8 2.1 4.3 4.5 2.9 1.2 0.8 0.5
0.4 0.3 0.2 0.1 0.2 0.3 0.0 0.0 0.0 1.8 2.3 3.0 6.6 6.5 8.7 8.4 4.0 0.3 1.9 0.2 4.1 6.5 3.8 3.1 3.4 2.9 3.7
2.2 1.4 1.4 2.1 3.1 2.9 4.7 3.0 5.1 3.2 3.0 3.2 4.9 6.3 8.6 3.3 5.2 3.0 2.5 5.7 3.1 3.7 4.0 3.2 2.0 2.0 2.6
4.4 5.7 4.6 3.9 3.2 3.2 4.2 5.1 6.5 4.0 4.3 4.0 2.7 2.7 2.4 3.0 6.0 1.9 3.1 3.4 4.5 5.5 4.9 4.7 4.1 3.8 1.8
5.2 5.6 7.2 6.1 5.3 4.1 4.0 5.6 6.4 4.1 4.5 4.3 4.3 3.8 2.4 0.9 2.0 6.4 4.7 4.9 5.3 4.7 5.1 8.0 6.2 5.5 0.3
6.1 6.2 7.0 6.2 4.6 5.3 4.6 4.5 4.0 3.3 3.7 4.0 4.9 8.0 10.8 4.0 1.9 2.8 11.6 8.8 5.6 4.6 4.3 5.1 7.7 6.1 1.1

GFSFLT2_prec_kuchsnow_123.txt.gz
Snowfall_Accumulation
0.0 0.2 0.2 0.3 0.1 0.0 0.0 0.0 0.0 0.0 0.0 0.0 0.0 0.0 0.0 0.0 0.0 0.0 0.0 0.0 0.0 0.0 0.0 0.0 0.0 0.0 0.0
0.1 0.9 1.6 1.0 0.4 0.1 0.0 0.0 0.0 0.0 0.0 0.0 0.0 0.0 0.0 0.0 0.0 0.0 0.0 0.0 0.0 0.0 0.0 0.0 0.0 0.0 0.0
0.5 0.9 0.5 0.2 0.1 0.1 0.0 0.0 0.0 0.0 0.0 0.0 0.0 0.0 0.0 0.0 0.0 0.0 0.0 0.0 0.0 0.0 0.0 0.0 0.0 0.0 0.0
0.3 0.8 0.7 0.2 0.2 0.1 0.1 0.0 0.0 0.0 0.0 0.0 0.0 0.0 0.0 0.0 0.0 0.0 0.0 0.0 0.0 0.0 0.0 0.0 0.0 0.0 0.0
2.0 1.3 0.4 0.1 0.1 0.0 0.0 0.0 0.2 0.0 0.0 0.0 0.0 0.0 0.0 0.0 0.0 0.0 0.0 0.0 0.0 0.0 0.0 0.0 0.0 0.0 0.0
3.7 0.5 0.0 0.0 0.0 0.0 1.8 1.2 1.2 0.0 0.1 0.1 0.0 0.0 0.0 0.0 0.0 0.0 0.0 0.0 0.0 0.0 0.0 0.0 0.0 0.0 0.0
0.1 0.0 0.1 0.2 2.4 2.6 0.7 1.4 1.1 0.0 0.2 0.6 0.0 0.0 0.0 0.0 0.0 0.0 0.0 0.0 0.0 0.0 0.0 0.0 0.0 0.0 0.0
0.0 0.1 0.5 0.3 0.3 1.4 1.5 0.9 0.3 0.1 0.1 2.0 0.1 0.1 0.0 0.0 0.0 0.0 0.0 0.0 0.0 0.0 0.0 0.0 0.0 0.0 0.0
0.2 0.1 0.0 0.0 0.0 1.0 2.1 2.5 1.6 0.0 0.0 0.7 0.2 0.0 0.0 0.0 0.0 0.0 0.0 0.0 0.0 0.0 0.0 0.0 0.0 0.0 0.0
0.0 0.0 0.0 0.0 0.0 0.1 2.3 8.4 3.9 3.2 0.0 3.8 1.1 1.1 6.8 0.5 0.0 0.0 0.0 0.0 0.0 0.0 0.0 0.0 0.0 0.3 0.6
0.0 0.0 0.0 0.0 0.1 0.1 0.7 6.5 11.6 7.5 0.0 6.9 9.5 3.9 9.6 5.3 2.2 2.0 0.0 0.0 0.9 0.7 0.3 0.6 0.6 0.7 2.3
0.0 0.1 0.2 0.2 0.1 0.1 0.2 0.7 1.6 5.9 1.9 3.5 16.3 6.7 12.3 8.8 3.0 2.0 1.7 1.7 2.8 4.6 4.5 2.9 1.2 0.8 0.5
0.4 0.3 0.2 0.1 0.2 0.3 0.0 0.0 0.0 1.8 2.3 3.0 6.6 7.6 9.7 9.2 5.2 2.1 3.4 0.8 4.5 6.5 3.8 3.1 3.4 2.9 3.7
2.2 1.4 1.4 2.1 3.1 2.9 4.7 3.0 5.2 3.5 3.5 3.9 5.7 7.2 9.4 3.9 5.8 3.8 3.2 6.3 3.3 3.7 4.0 3.2 2.0 2.0 2.6
4.4 5.7 4.6 3.9 3.2 3.3 4.4 5.3 6.7 4.1 4.8 4.8 3.7 3.7 3.2 3.7 6.8 2.6 3.4 3.7 4.5 5.5 4.9 4.7 4.1 3.8 1.8
5.2 5.6 7.3 6.1 5.3 4.1 4.2 5.8 6.6 4.4 4.8 4.6 5.0 4.9 3.6 2.2 2.7 7.0 5.0 4.9 5.3 4.7 5.1 8.0 6.2 5.5 0.3
6.1 6.2 7.1 6.2 4.8 5.3 4.7 4.7 4.2 3.5 3.9 4.3 5.3 8.7 12.2 5.5 3.1 3.2 11.8 8.9 5.6 4.6 4.3 5.1 7.7 6.1 1.1

GFSFLT2_prec_kuchsnow_126.txt.gz
Snowfall_Accumulation
0.0 0.2 0.2 0.3 0.1 0.0 0.0 0.0 0.0 0.0 0.0 0.0 0.0 0.0 0.0 0.0 0.0 0.0 0.0 0.0 0.0 0.0 0.0 0.0 0.0 0.0 0.0
0.1 0.9 1.6 1.0 0.4 0.1 0.0 0.0 0.0 0.0 0.0 0.0 0.0 0.0 0.0 0.0 0.0 0.0 0.0 0.0 0.0 0.0 0.0 0.0 0.0 0.0 0.0
0.5 0.9 0.5 0.2 0.1 0.1 0.0 0.0 0.0 0.0 0.0 0.0 0.0 0.0 0.0 0.0 0.0 0.0 0.0 0.0 0.0 0.0 0.0 0.0 0.0 0.0 0.0
0.3 0.8 0.7 0.2 0.2 0.1 0.1 0.0 0.0 0.0 0.0 0.0 0.0 0.0 0.0 0.0 0.0 0.0 0.0 0.0 0.0 0.0 0.0 0.0 0.0 0.0 0.0
2.0 1.3 0.4 0.1 0.1 0.0 0.0 0.0 0.2 0.0 0.0 0.0 0.0 0.0 0.0 0.0 0.0 0.0 0.0 0.0 0.0 0.0 0.0 0.0 0.0 0.0 0.0
3.7 0.5 0.0 0.0 0.0 0.0 1.8 1.2 1.2 0.0 0.1 0.1 0.0 0.0 0.0 0.0 0.0 0.0 0.0 0.0 0.0 0.0 0.0 0.0 0.0 0.0 0.0
0.1 0.0 0.1 0.2 2.4 2.6 0.7 1.4 1.1 0.0 0.2 0.6 0.0 0.0 0.0 0.0 0.0 0.0 0.0 0.0 0.0 0.0 0.0 0.0 0.0 0.0 0.0
0.0 0.1 0.5 0.3 0.3 1.4 1.5 0.9 0.3 0.1 0.1 2.0 0.1 0.1 0.0 0.0 0.0 0.0 0.0 0.0 0.0 0.0 0.0 0.0 0.0 0.0 0.0
0.2 0.1 0.0 0.0 0.0 1.0 2.1 2.5 1.7 0.0 0.0 0.7 0.2 0.0 0.0 0.0 0.0 0.0 0.0 0.0 0.0 0.0 0.0 0.0 0.0 0.0 0.0
0.0 0.0 0.0 0.0 0.0 0.1 2.3 8.5 4.0 3.3 0.0 3.8 1.1 1.1 6.8 0.5 0.0 0.0 0.0 0.0 0.0 0.0 0.0 0.0 0.0 0.3 0.6
0.0 0.0 0.0 0.0 0.1 0.1 0.7 6.5 11.7 7.6 0.0 6.9 9.5 3.9 9.6 5.3 2.2 2.0 0.0 0.0 0.9 0.7 0.3 0.6 0.6 0.7 2.3
0.0 0.1 0.2 0.2 0.1 0.1 0.2 0.7 1.6 6.0 2.0 3.5 16.5 6.7 12.7 9.0 3.0 2.0 2.4 2.6 3.6 6.1 6.0 3.5 1.2 0.8 0.5
0.4 0.3 0.2 0.1 0.2 0.3 0.0 0.0 0.0 1.8 2.3 3.0 6.8 7.8 10.0 9.4 5.4 2.5 4.2 1.7 5.5 7.6 4.8 3.6 3.5 2.9 3.7
2.2 1.4 1.4 2.1 3.1 2.9 4.7 3.0 5.2 3.5 3.5 3.9 5.7 7.2 9.6 4.1 6.2 4.4 3.7 7.2 4.4 4.7 4.3 3.2 2.0 2.0 2.6
4.4 5.7 4.6 3.9 3.2 3.3 4.5 5.3 6.7 4.1 4.8 4.8 3.7 3.9 3.4 4.0 7.1 2.9 3.7 4.2 5.5 6.3 5.1 4.7 4.1 3.8 1.8
5.2 5.7 7.3 6.2 5.3 4.1 4.2 5.9 6.7 4.4 4.8 4.6 5.0 5.1 3.8 2.4 2.7 7.1 5.1 5.2 5.8 4.9 5.1 8.0 6.2 5.5 0.3
6.1 6.3 7.1 6.3 4.9 5.3 4.8 4.7 4.2 3.5 3.9 4.3 5.4 8.8 12.3 5.7 3.4 3.3 11.8 8.9 5.6 4.6 4.3 5.1 7.7 6.1 1.1

GFSFLT2_prec_kuchsnow_129.txt.gz
Snowfall_Accumulation
0.0 0.2 0.2 0.3 0.1 0.0 0.0 0.0 0.0 0.0 0.0 0.0 0.0 0.0 0.0 0.0 0.0 0.0 0.0 0.0 0.0 0.0 0.0 0.0 0.0 0.0 0.0
0.1 0.9 1.6 1.0 0.4 0.1 0.0 0.0 0.0 0.0 0.0 0.0 0.0 0.0 0.0 0.0 0.0 0.0 0.0 0.0 0.0 0.0 0.0 0.0 0.0 0.0 0.0
0.5 0.9 0.5 0.2 0.1 0.1 0.0 0.0 0.0 0.0 0.0 0.0 0.0 0.0 0.0 0.0 0.0 0.0 0.0 0.0 0.0 0.0 0.0 0.0 0.0 0.0 0.0
0.3 0.8 0.7 0.2 0.2 0.1 0.1 0.0 0.0 0.0 0.0 0.0 0.0 0.0 0.0 0.0 0.0 0.0 0.0 0.0 0.0 0.0 0.0 0.0 0.0 0.0 0.0
2.0 1.3 0.4 0.1 0.1 0.0 0.0 0.0 0.2 0.0 0.0 0.0 0.0 0.0 0.0 0.0 0.0 0.0 0.0 0.0 0.0 0.0 0.0 0.0 0.0 0.0 0.0
3.7 0.5 0.0 0.0 0.0 0.0 1.8 1.2 1.2 0.0 0.1 0.1 0.0 0.0 0.0 0.0 0.0 0.0 0.0 0.0 0.0 0.0 0.0 0.0 0.0 0.0 0.0
0.1 0.0 0.1 0.2 2.4 2.6 0.7 1.4 1.1 0.0 0.2 0.6 0.0 0.0 0.0 0.0 0.0 0.0 0.0 0.0 0.0 0.0 0.0 0.0 0.0 0.0 0.0
0.0 0.1 0.5 0.3 0.3 1.4 1.5 0.9 0.3 0.1 0.1 2.0 0.1 0.1 0.0 0.0 0.0 0.0 0.0 0.0 0.0 0.0 0.0 0.0 0.0 0.0 0.0
0.2 0.1 0.0 0.0 0.0 1.0 2.1 2.5 1.7 0.0 0.0 0.7 0.2 0.0 0.0 0.0 0.0 0.0 0.0 0.0 0.0 0.0 0.0 0.0 0.0 0.0 0.0
0.0 0.0 0.0 0.0 0.0 0.1 2.3 8.6 4.0 3.4 0.0 3.8 1.1 1.1 6.8 0.5 0.0 0.0 0.0 0.0 0.0 0.0 0.0 0.0 0.0 0.3 0.6
0.0 0.0 0.0 0.0 0.1 0.1 0.7 6.5 11.8 7.7 0.0 6.9 9.6 3.9 9.6 5.3 2.2 2.0 0.0 0.0 0.9 0.7 0.3 0.6 0.6 0.7 2.6
0.0 0.1 0.2 0.2 0.1 0.1 0.2 0.7 1.6 6.1 2.0 3.6 16.8 6.8 12.9 9.2 3.0 2.0 2.4 2.6 3.6 6.4 6.5 3.5 1.2 0.8 0.5
0.4 0.3 0.2 0.1 0.2 0.3 0.0 0.0 0.0 1.8 2.3 3.1 6.9 8.0 10.3 9.7 5.5 2.5 4.2 1.7 5.5 8.0 5.4 4.1 3.8 3.2 3.7
2.2 1.4 1.4 2.1 3.1 2.9 4.7 3.0 5.2 3.5 3.5 3.9 5.7 7.2 9.6 4.1 6.4 4.4 3.8 7.3 4.4 5.2 4.3 3.2 2.0 2.0 2.6
4.4 5.7 4.6 3.9 3.2 3.3 4.5 5.4 6.8 4.1 4.8 4.8 3.7 3.9 3.4 4.1 7.3 3.0 4.0 4.6 5.8 6.9 5.4 4.7 4.1 3.8 1.8
5.2 5.7 7.3 6.2 5.3 4.1 4.2 6.0 6.9 4.4 4.8 4.7 5.1 5.2 3.9 2.4 2.8 7.1 5.2 5.5 6.2 5.6 5.3 8.0 6.2 5.5 0.3
6.1 6.3 7.2 6.3 4.9 5.3 4.8 4.8 4.2 3.5 3.9 4.3 5.6 9.1 12.6 5.8 3.4 3.3 11.9 9.0 5.8 4.9 4.3 5.1 7.7 6.1 1.1

GFSFLT2_prec_kuchsnow_132.txt.gz
Snowfall_Accumulation
0.0 0.2 0.2 0.3 0.1 0.0 0.0 0.0 0.0 0.0 0.0 0.0 0.0 0.0 0.0 0.0 0.0 0.0 0.0 0.0 0.0 0.0 0.0 0.0 0.0 0.0 0.0
0.1 0.9 1.6 1.0 0.4 0.1 0.0 0.0 0.0 0.0 0.0 0.0 0.0 0.0 0.0 0.0 0.0 0.0 0.0 0.0 0.0 0.0 0.0 0.0 0.0 0.0 0.0
0.5 0.9 0.5 0.2 0.1 0.1 0.0 0.0 0.0 0.0 0.0 0.0 0.0 0.0 0.0 0.0 0.0 0.0 0.0 0.0 0.0 0.0 0.0 0.0 0.0 0.0 0.0
0.3 0.8 0.7 0.2 0.2 0.1 0.1 0.0 0.0 0.0 0.0 0.0 0.0 0.0 0.0 0.0 0.0 0.0 0.0 0.0 0.0 0.0 0.0 0.0 0.0 0.0 0.0
2.0 1.3 0.4 0.1 0.1 0.0 0.0 0.0 0.2 0.0 0.0 0.0 0.0 0.0 0.0 0.0 0.0 0.0 0.0 0.0 0.0 0.0 0.0 0.0 0.0 0.0 0.0
3.7 0.5 0.0 0.0 0.0 0.0 1.8 1.2 1.2 0.0 0.1 0.1 0.0 0.0 0.0 0.0 0.0 0.0 0.0 0.0 0.0 0.0 0.0 0.0 0.0 0.0 0.0
0.1 0.0 0.1 0.2 2.4 2.6 0.7 1.4 1.1 0.0 0.2 0.6 0.0 0.0 0.0 0.0 0.0 0.0 0.0 0.0 0.0 0.0 0.0 0.0 0.0 0.0 0.0
0.0 0.1 0.5 0.3 0.3 1.4 1.5 0.9 0.3 0.1 0.1 2.0 0.1 0.1 0.0 0.0 0.0 0.0 0.0 0.0 0.0 0.0 0.0 0.0 0.0 0.0 0.0
0.2 0.1 0.0 0.0 0.0 1.0 2.1 2.5 1.7 0.0 0.0 0.7 0.2 0.0 0.0 0.0 0.0 0.0 0.0 0.0 0.0 0.0 0.0 0.0 0.0 0.0 0.0
0.0 0.0 0.0 0.0 0.0 0.1 2.3 8.7 4.1 3.5 0.0 3.8 1.1 1.2 6.8 0.5 0.0 0.0 0.0 0.0 0.0 0.0 0.0 0.0 0.0 0.3 0.6
0.0 0.0 0.0 0.0 0.1 0.1 0.7 6.5 11.9 7.9 0.0 7.1 9.8 3.9 9.6 5.3 2.2 2.0 0.0 0.0 0.9 0.7 0.3 0.6 0.6 0.7 2.6
0.0 0.1 0.2 0.2 0.1 0.1 0.2 0.7 1.6 6.2 2.0 3.8 17.2 6.9 13.2 9.3 3.0 2.0 2.4 2.6 3.6 6.4 6.5 3.6 1.2 0.8 0.5
0.4 0.3 0.2 0.1 0.2 0.3 0.0 0.0 0.0 1.8 2.3 3.1 7.2 8.2 10.5 9.9 5.6 2.5 4.2 1.7 5.5 8.0 5.4 4.3 4.0 3.2 3.7
2.2 1.4 1.4 2.1 3.1 2.9 4.7 3.0 5.2 3.5 3.5 3.9 5.7 7.4 9.7 4.1 6.4 4.4 3.8 7.4 4.4 5.2 4.3 3.2 2.0 2.1 2.6
4.4 5.7 4.6 3.9 3.2 3.3 4.5 5.4 6.9 4.1 4.8 4.8 3.7 3.9 3.4 4.1 7.3 3.0 4.0 4.6 5.8 6.9 5.4 4.7 4.1 3.8 1.8
5.2 5.7 7.3 6.2 5.3 4.1 4.2 6.0 7.0 4.4 4.8 4.7 5.2 5.2 3.9 2.4 2.8 7.1 5.2 5.5 6.2 6.0 5.6 8.0 6.2 5.5 0.3
6.1 6.3 7.2 6.4 4.9 5.3 4.8 4.8 4.2 3.5 3.9 4.4 5.8 9.3 12.6 5.8 3.4 3.3 11.9 9.0 5.8 5.3 4.5 5.1 7.7 6.1 1.1

GFSFLT2_prec_kuchsnow_135.txt.gz
Snowfall_Accumulation
0.0 0.2 0.2 0.3 0.1 0.0 0.0 0.0 0.0 0.0 0.0 0.0 0.0 0.0 0.0 0.0 0.0 0.0 0.0 0.0 0.0 0.0 0.0 0.0 0.0 0.0 0.0
0.1 0.9 1.6 1.0 0.4 0.1 0.0 0.0 0.0 0.0 0.0 0.0 0.0 0.0 0.0 0.0 0.0 0.0 0.0 0.0 0.0 0.0 0.0 0.0 0.0 0.0 0.0
0.5 0.9 0.5 0.2 0.1 0.1 0.0 0.0 0.0 0.0 0.0 0.0 0.0 0.0 0.0 0.0 0.0 0.0 0.0 0.0 0.0 0.0 0.0 0.0 0.0 0.0 0.0
0.3 0.8 0.7 0.2 0.2 0.1 0.1 0.0 0.0 0.0 0.0 0.0 0.0 0.0 0.0 0.0 0.0 0.0 0.0 0.0 0.0 0.0 0.0 0.0 0.0 0.0 0.0
2.0 1.3 0.4 0.1 0.1 0.0 0.0 0.0 0.2 0.0 0.0 0.0 0.0 0.0 0.0 0.0 0.0 0.0 0.0 0.0 0.0 0.0 0.0 0.0 0.0 0.0 0.0
3.7 0.5 0.0 0.0 0.0 0.0 1.8 1.2 1.2 0.0 0.1 0.1 0.0 0.0 0.0 0.0 0.0 0.0 0.0 0.0 0.0 0.0 0.0 0.0 0.0 0.0 0.0
0.1 0.0 0.1 0.2 2.4 2.6 0.7 1.4 1.1 0.0 0.2 0.6 0.0 0.0 0.0 0.0 0.0 0.0 0.0 0.0 0.0 0.0 0.0 0.0 0.0 0.0 0.0
0.0 0.1 0.5 0.3 0.3 1.4 1.5 0.9 0.3 0.1 0.1 2.0 0.1 0.1 0.0 0.0 0.0 0.0 0.0 0.0 0.0 0.0 0.0 0.0 0.0 0.0 0.0
0.2 0.1 0.0 0.0 0.0 1.0 2.1 2.5 1.7 0.0 0.0 0.7 0.2 0.0 0.0 0.0 0.0 0.0 0.0 0.0 0.0 0.0 0.0 0.0 0.0 0.0 0.0
0.0 0.0 0.0 0.0 0.0 0.1 2.3 8.7 4.1 3.5 0.0 3.9 1.1 1.2 6.9 0.5 0.0 0.0 0.0 0.0 0.0 0.0 0.0 0.0 0.0 0.3 0.6
0.0 0.0 0.0 0.0 0.1 0.1 0.7 6.5 12.0 8.0 0.0 7.4 10.0 3.9 9.7 5.4 2.2 2.0 0.0 0.0 0.9 0.7 0.3 0.6 0.6 0.7 2.6
0.0 0.1 0.2 0.2 0.1 0.1 0.2 0.7 1.6 6.2 2.0 3.9 17.6 7.1 13.4 9.4 3.0 2.0 2.4 2.6 3.6 6.4 6.5 3.6 1.2 0.8 0.5
0.4 0.3 0.2 0.1 0.2 0.3 0.0 0.0 0.0 1.8 2.3 3.1 7.4 8.3 10.7 10.1 5.8 2.5 4.3 1.7 5.5 8.0 5.4 4.3 4.0 3.2 3.7
2.2 1.4 1.4 2.1 3.1 2.9 4.7 3.0 5.2 3.5 3.5 3.9 5.7 7.5 9.8 4.1 6.5 4.4 3.8 7.5 4.4 5.2 4.3 3.2 2.0 2.1 2.6
4.4 5.7 4.6 3.9 3.2 3.3 4.5 5.4 6.9 4.1 4.8 4.8 3.7 3.9 3.5 4.2 7.3 3.0 4.0 4.6 5.8 6.9 5.4 4.7 4.1 3.8 1.8
5.2 5.7 7.3 6.2 5.3 4.1 4.2 6.0 7.0 4.4 4.8 4.7 5.2 5.2 3.9 2.4 2.8 7.1 5.2 5.5 6.2 6.0 5.6 8.0 6.2 5.5 0.3
6.1 6.3 7.2 6.4 4.9 5.3 4.8 4.8 4.2 3.5 3.9 4.4 6.0 9.5 12.7 5.8 3.4 3.3 11.9 9.0 5.8 5.3 4.5 5.1 7.7 6.1 1.1

GFSFLT2_prec_kuchsnow_138.txt.gz
Snowfall_Accumulation
0.0 0.2 0.2 0.3 0.1 0.0 0.0 0.0 0.0 0.0 0.0 0.0 0.0 0.0 0.0 0.0 0.0 0.0 0.0 0.0 0.0 0.0 0.0 0.0 0.0 0.0 0.0
0.1 0.9 1.6 1.0 0.4 0.1 0.0 0.0 0.0 0.0 0.0 0.0 0.0 0.0 0.0 0.0 0.0 0.0 0.0 0.0 0.0 0.0 0.0 0.0 0.0 0.0 0.0
0.5 0.9 0.5 0.2 0.1 0.1 0.0 0.0 0.0 0.0 0.0 0.0 0.0 0.0 0.0 0.0 0.0 0.0 0.0 0.0 0.0 0.0 0.0 0.0 0.0 0.0 0.0
0.3 0.8 0.7 0.2 0.2 0.1 0.1 0.0 0.0 0.0 0.0 0.0 0.0 0.0 0.0 0.0 0.0 0.0 0.0 0.0 0.0 0.0 0.0 0.0 0.0 0.0 0.0
2.0 1.3 0.4 0.1 0.1 0.0 0.0 0.0 0.2 0.0 0.0 0.0 0.0 0.0 0.0 0.0 0.0 0.0 0.0 0.0 0.0 0.0 0.0 0.0 0.0 0.0 0.0
3.7 0.5 0.0 0.0 0.0 0.0 1.8 1.2 1.2 0.0 0.1 0.1 0.0 0.0 0.0 0.0 0.0 0.0 0.0 0.0 0.0 0.0 0.0 0.0 0.0 0.0 0.0
0.1 0.0 0.1 0.2 2.4 2.6 0.7 1.4 1.1 0.0 0.2 0.6 0.0 0.0 0.0 0.0 0.0 0.0 0.0 0.0 0.0 0.0 0.0 0.0 0.0 0.0 0.0
0.0 0.1 0.5 0.3 0.3 1.4 1.5 0.9 0.3 0.1 0.1 2.0 0.1 0.1 0.0 0.0 0.0 0.0 0.0 0.0 0.0 0.0 0.0 0.0 0.0 0.0 0.0
0.2 0.1 0.0 0.0 0.0 1.0 2.1 2.5 1.7 0.0 0.0 0.7 0.2 0.0 0.0 0.0 0.0 0.0 0.0 0.0 0.0 0.0 0.0 0.0 0.0 0.0 0.0
0.0 0.0 0.0 0.0 0.0 0.1 2.3 8.7 4.1 3.5 0.0 3.9 1.1 1.2 7.0 0.5 0.0 0.0 0.0 0.0 0.0 0.0 0.0 0.0 0.0 0.3 0.6
0.0 0.0 0.0 0.0 0.1 0.1 0.7 6.5 12.0 8.1 0.0 7.6 10.2 3.9 9.8 5.4 2.2 2.0 0.0 0.0 0.9 0.7 0.3 0.6 0.6 0.7 2.6
0.0 0.1 0.2 0.2 0.1 0.1 0.2 0.7 1.6 6.2 2.0 3.9 18.1 7.2 13.6 9.6 3.0 2.0 2.4 2.6 3.6 6.4 6.5 3.6 1.2 0.8 0.5
0.4 0.3 0.2 0.1 0.2 0.3 0.0 0.0 0.0 1.8 2.3 3.1 7.6 8.4 10.9 10.4 5.9 2.5 4.3 1.7 5.5 8.0 5.4 4.3 4.0 3.2 3.7
2.2 1.4 1.4 2.1 3.1 2.9 4.7 3.0 5.2 3.5 3.5 3.9 5.7 7.8 10.1 4.1 6.6 4.4 3.8 7.5 4.4 5.2 4.3 3.2 2.0 2.1 2.6
4.4 5.7 4.6 3.9 3.2 3.3 4.5 5.4 6.9 4.1 4.8 4.8 3.7 3.9 3.5 4.2 7.3 3.0 4.0 4.6 5.8 6.9 5.4 4.7 4.1 3.8 1.8
5.2 5.7 7.3 6.2 5.3 4.1 4.2 6.0 7.0 4.4 4.8 4.7 5.2 5.2 3.9 2.4 2.8 7.1 5.2 5.5 6.2 6.0 5.6 8.1 6.2 5.5 0.3
6.1 6.3 7.2 6.4 4.9 5.3 4.8 4.8 4.2 3.5 3.9 4.4 6.0 9.7 12.9 5.8 3.4 3.3 12.0 9.0 5.8 5.3 4.5 5.1 7.7 6.1 1.1

GFSFLT2_prec_kuchsnow_141.txt.gz
Snowfall_Accumulation
0.0 0.2 0.2 0.3 0.1 0.0 0.0 0.0 0.0 0.0 0.0 0.0 0.0 0.0 0.0 0.0 0.0 0.0 0.0 0.0 0.0 0.0 0.0 0.0 0.0 0.0 0.0
0.1 0.9 1.6 1.0 0.4 0.1 0.0 0.0 0.0 0.0 0.0 0.0 0.0 0.0 0.0 0.0 0.0 0.0 0.0 0.0 0.0 0.0 0.0 0.0 0.0 0.0 0.0
0.5 0.9 0.5 0.2 0.1 0.1 0.0 0.0 0.0 0.0 0.0 0.0 0.0 0.0 0.0 0.0 0.0 0.0 0.0 0.0 0.0 0.0 0.0 0.0 0.0 0.0 0.0
0.3 0.8 0.7 0.2 0.2 0.1 0.1 0.0 0.0 0.0 0.0 0.0 0.0 0.0 0.0 0.0 0.0 0.0 0.0 0.0 0.0 0.0 0.0 0.0 0.0 0.0 0.0
2.0 1.3 0.4 0.1 0.1 0.0 0.0 0.0 0.2 0.0 0.0 0.0 0.0 0.0 0.0 0.0 0.0 0.0 0.0 0.0 0.0 0.0 0.0 0.0 0.0 0.0 0.0
3.7 0.5 0.0 0.0 0.0 0.0 1.8 1.2 1.2 0.0 0.1 0.1 0.0 0.0 0.0 0.0 0.0 0.0 0.0 0.0 0.0 0.0 0.0 0.0 0.0 0.0 0.0
0.1 0.0 0.1 0.2 2.4 2.6 0.7 1.4 1.1 0.0 0.2 0.6 0.0 0.0 0.0 0.0 0.0 0.0 0.0 0.0 0.0 0.0 0.0 0.0 0.0 0.0 0.0
0.0 0.1 0.5 0.3 0.3 1.4 1.5 0.9 0.3 0.1 0.1 2.0 0.1 0.1 0.0 0.0 0.0 0.0 0.0 0.0 0.0 0.0 0.0 0.0 0.0 0.0 0.0
0.2 0.1 0.0 0.0 0.0 1.0 2.1 2.5 1.7 0.0 0.0 0.8 0.2 0.0 0.0 0.0 0.0 0.0 0.0 0.0 0.0 0.0 0.0 0.0 0.0 0.0 0.0
0.0 0.0 0.0 0.0 0.0 0.1 2.3 8.7 4.1 3.5 0.0 3.9 1.1 1.2 7.0 0.5 0.0 0.0 0.0 0.0 0.0 0.0 0.0 0.0 0.0 0.3 0.6
0.0 0.0 0.0 0.0 0.1 0.1 0.7 6.5 12.0 8.1 0.0 7.6 10.2 3.9 9.9 5.5 2.2 2.0 0.0 0.0 0.9 0.7 0.3 0.6 0.6 0.7 2.6
0.0 0.1 0.2 0.2 0.1 0.1 0.2 0.7 1.6 6.2 2.0 3.9 18.3 7.4 13.9 9.7 3.0 2.0 2.4 2.6 3.6 6.4 6.5 3.6 1.2 0.8 0.5
0.4 0.3 0.2 0.1 0.2 0.3 0.0 0.0 0.0 1.8 2.3 3.1 7.8 8.4 11.1 10.6 6.0 2.5 4.3 1.7 5.5 8.0 5.4 4.3 4.0 3.2 3.7
2.2 1.4 1.4 2.1 3.1 2.9 4.7 3.0 5.2 3.5 3.5 3.9 5.7 7.8 10.1 4.1 6.7 4.4 3.8 7.6 4.4 5.2 4.3 3.2 2.0 2.1 2.6
4.4 5.7 4.6 3.9 3.2 3.3 4.5 5.4 6.9 4.1 4.8 4.8 3.7 3.9 3.5 4.2 7.3 3.0 4.0 4.6 5.8 6.9 5.4 4.7 4.1 3.8 1.8
5.2 5.7 7.3 6.2 5.3 4.1 4.2 6.0 7.0 4.4 4.8 4.7 5.2 5.2 3.9 2.4 2.8 7.1 5.2 5.5 6.2 6.0 5.6 8.2 6.2 5.5 0.3
6.1 6.3 7.2 6.4 4.9 5.3 4.8 4.8 4.2 3.5 3.9 4.4 6.0 9.9 12.9 5.8 3.4 3.3 12.1 9.0 5.8 5.3 4.5 5.1 7.7 6.1 1.1

GFSFLT2_prec_kuchsnow_144.txt.gz
Snowfall_Accumulation
0.0 0.2 0.2 0.3 0.1 0.0 0.0 0.0 0.0 0.0 0.0 0.0 0.0 0.0 0.0 0.0 0.0 0.0 0.0 0.0 0.0 0.0 0.0 0.0 0.0 0.0 0.0
0.1 0.9 1.6 1.0 0.4 0.1 0.0 0.0 0.0 0.0 0.0 0.0 0.0 0.0 0.0 0.0 0.0 0.0 0.0 0.0 0.0 0.0 0.0 0.0 0.0 0.0 0.0
0.5 0.9 0.5 0.2 0.1 0.1 0.0 0.0 0.0 0.0 0.0 0.0 0.0 0.0 0.0 0.0 0.0 0.0 0.0 0.0 0.0 0.0 0.0 0.0 0.0 0.0 0.0
0.3 0.8 0.7 0.2 0.2 0.1 0.1 0.0 0.0 0.0 0.0 0.0 0.0 0.0 0.0 0.0 0.0 0.0 0.0 0.0 0.0 0.0 0.0 0.0 0.0 0.0 0.0
2.0 1.3 0.4 0.1 0.1 0.0 0.0 0.0 0.2 0.0 0.0 0.0 0.0 0.0 0.0 0.0 0.0 0.0 0.0 0.0 0.0 0.0 0.0 0.0 0.0 0.0 0.0
3.7 0.5 0.0 0.0 0.0 0.0 1.8 1.2 1.2 0.0 0.1 0.1 0.0 0.0 0.0 0.0 0.0 0.0 0.0 0.0 0.0 0.0 0.0 0.0 0.0 0.0 0.0
0.1 0.0 0.1 0.2 2.4 2.6 0.7 1.4 1.1 0.0 0.2 0.6 0.0 0.0 0.0 0.0 0.0 0.0 0.0 0.0 0.0 0.0 0.0 0.0 0.0 0.0 0.0
0.0 0.1 0.5 0.3 0.3 1.4 1.5 0.9 0.3 0.1 0.1 2.0 0.1 0.1 0.0 0.0 0.0 0.0 0.0 0.0 0.0 0.0 0.0 0.0 0.0 0.0 0.0
0.2 0.1 0.0 0.0 0.0 1.0 2.1 2.5 1.7 0.0 0.0 0.8 0.2 0.0 0.0 0.0 0.0 0.0 0.0 0.0 0.0 0.0 0.0 0.0 0.0 0.0 0.0
0.0 0.0 0.0 0.0 0.0 0.1 2.3 8.7 4.1 3.5 0.0 3.9 1.1 1.2 7.0 0.5 0.0 0.0 0.0 0.0 0.0 0.0 0.0 0.0 0.0 0.3 0.6
0.0 0.0 0.0 0.0 0.1 0.1 0.7 6.5 12.0 8.1 0.0 7.6 10.2 3.9 9.9 5.5 2.2 2.0 0.0 0.0 0.9 0.7 0.3 0.6 0.6 0.7 2.6
0.0 0.1 0.2 0.2 0.1 0.1 0.2 0.7 1.6 6.2 2.0 3.9 18.3 7.4 14.0 9.8 3.0 2.0 2.4 2.6 3.6 6.4 6.5 3.6 1.2 0.8 0.5
0.4 0.3 0.2 0.1 0.2 0.3 0.0 0.0 0.0 1.8 2.3 3.1 7.8 8.5 11.2 10.7 6.1 2.5 4.3 1.7 5.5 8.0 5.4 4.3 4.0 3.2 3.7
2.2 1.4 1.4 2.1 3.1 2.9 4.7 3.0 5.2 3.5 3.5 3.9 5.7 7.8 10.1 4.1 6.7 4.4 3.8 7.6 4.4 5.2 4.3 3.2 2.0 2.1 2.6
4.4 5.7 4.6 3.9 3.2 3.3 4.5 5.4 6.9 4.1 4.8 4.8 3.7 3.9 3.5 4.2 7.3 3.0 4.0 4.6 5.8 6.9 5.4 4.7 4.1 3.8 1.8
5.2 5.7 7.3 6.2 5.3 4.1 4.2 6.0 7.0 4.4 4.8 4.7 5.2 5.2 3.9 2.4 2.8 7.1 5.2 5.5 6.2 6.0 5.6 8.2 6.2 5.5 0.3
6.1 6.3 7.2 6.4 4.9 5.3 4.8 4.8 4.2 3.5 3.9 4.4 6.0 9.9 13.0 5.8 3.4 3.3 12.2 9.0 5.8 5.3 4.5 5.1 7.7 6.1 1.1

GFSFLT2_prec_kuchsnow_147.txt.gz
Snowfall_Accumulation
0.0 0.2 0.2 0.3 0.1 0.0 0.0 0.0 0.0 0.0 0.0 0.0 0.0 0.0 0.0 0.0 0.0 0.0 0.0 0.0 0.0 0.0 0.0 0.0 0.0 0.0 0.0
0.1 0.9 1.6 1.0 0.4 0.1 0.0 0.0 0.0 0.0 0.0 0.0 0.0 0.0 0.0 0.0 0.0 0.0 0.0 0.0 0.0 0.0 0.0 0.0 0.0 0.0 0.0
0.5 0.9 0.5 0.2 0.1 0.1 0.0 0.0 0.0 0.0 0.0 0.0 0.0 0.0 0.0 0.0 0.0 0.0 0.0 0.0 0.0 0.0 0.0 0.0 0.0 0.0 0.0
0.3 0.8 0.7 0.2 0.2 0.1 0.1 0.0 0.0 0.0 0.0 0.0 0.0 0.0 0.0 0.0 0.0 0.0 0.0 0.0 0.0 0.0 0.0 0.0 0.0 0.0 0.0
2.0 1.3 0.4 0.1 0.1 0.0 0.0 0.0 0.2 0.0 0.0 0.0 0.0 0.0 0.0 0.0 0.0 0.0 0.0 0.0 0.0 0.0 0.0 0.0 0.0 0.0 0.0
3.7 0.5 0.0 0.0 0.0 0.0 1.8 1.2 1.2 0.0 0.1 0.1 0.0 0.0 0.0 0.0 0.0 0.0 0.0 0.0 0.0 0.0 0.0 0.0 0.0 0.0 0.0
0.1 0.0 0.1 0.2 2.4 2.6 0.7 1.4 1.1 0.0 0.2 0.6 0.0 0.0 0.0 0.0 0.0 0.0 0.0 0.0 0.0 0.0 0.0 0.0 0.0 0.0 0.0
0.0 0.1 0.5 0.3 0.3 1.4 1.5 0.9 0.3 0.1 0.1 2.0 0.1 0.1 0.0 0.0 0.0 0.0 0.0 0.0 0.0 0.0 0.0 0.0 0.0 0.0 0.0
0.2 0.1 0.0 0.0 0.0 1.0 2.1 2.5 1.7 0.0 0.0 0.8 0.2 0.0 0.0 0.0 0.0 0.0 0.0 0.0 0.0 0.0 0.0 0.0 0.0 0.0 0.0
0.0 0.0 0.0 0.0 0.0 0.1 2.3 8.7 4.1 3.5 0.0 3.9 1.1 1.2 7.0 0.5 0.0 0.0 0.0 0.0 0.0 0.0 0.0 0.0 0.0 0.3 0.6
0.0 0.0 0.0 0.0 0.1 0.1 0.7 6.5 12.0 8.1 0.0 7.6 10.2 3.9 9.9 5.5 2.2 2.0 0.0 0.0 0.9 0.7 0.3 0.6 0.6 0.7 2.6
0.0 0.1 0.2 0.2 0.1 0.1 0.2 0.7 1.6 6.2 2.0 3.9 18.3 7.4 14.0 9.9 3.0 2.0 2.4 2.6 3.6 6.4 6.5 3.6 1.2 0.8 0.5
0.4 0.3 0.2 0.1 0.2 0.3 0.0 0.0 0.0 1.8 2.3 3.1 7.8 8.5 11.2 10.7 6.1 2.5 4.3 1.7 5.5 8.0 5.4 4.3 4.0 3.2 3.7
2.2 1.4 1.4 2.1 3.1 2.9 4.7 3.0 5.2 3.5 3.5 3.9 5.7 7.8 10.1 4.1 6.8 4.4 3.8 7.6 4.4 5.2 4.3 3.2 2.0 2.1 2.6
4.4 5.7 4.6 3.9 3.2 3.3 4.5 5.4 6.9 4.1 4.8 4.8 3.7 3.9 3.5 4.2 7.3 3.0 4.0 4.6 5.8 6.9 5.4 4.7 4.1 3.8 1.8
5.2 5.7 7.3 6.2 5.3 4.1 4.2 6.0 7.0 4.4 4.8 4.7 5.2 5.2 3.9 2.4 2.8 7.1 5.2 5.5 6.2 6.0 5.6 8.2 6.2 5.5 0.3
6.1 6.3 7.2 6.4 4.9 5.3 4.8 4.8 4.2 3.5 3.9 4.4 6.0 9.9 13.0 5.8 3.4 3.3 12.2 9.0 5.8 5.3 4.5 5.1 7.7 6.1 1.1

GFSFLT2_prec_kuchsnow_150.txt.gz
Snowfall_Accumulation
0.0 0.2 0.2 0.3 0.1 0.0 0.0 0.0 0.0 0.0 0.0 0.0 0.0 0.0 0.0 0.0 0.0 0.0 0.0 0.0 0.0 0.0 0.0 0.0 0.0 0.0 0.0
0.1 0.9 1.6 1.0 0.4 0.1 0.0 0.0 0.0 0.0 0.0 0.0 0.0 0.0 0.0 0.0 0.0 0.0 0.0 0.0 0.0 0.0 0.0 0.0 0.0 0.0 0.0
0.5 0.9 0.5 0.2 0.1 0.1 0.0 0.0 0.0 0.0 0.0 0.0 0.0 0.0 0.0 0.0 0.0 0.0 0.0 0.0 0.0 0.0 0.0 0.0 0.0 0.0 0.0
0.3 0.8 0.7 0.2 0.2 0.1 0.1 0.0 0.0 0.0 0.0 0.0 0.0 0.0 0.0 0.0 0.0 0.0 0.0 0.0 0.0 0.0 0.0 0.0 0.0 0.0 0.0
2.0 1.3 0.4 0.1 0.1 0.0 0.0 0.0 0.2 0.0 0.0 0.0 0.0 0.0 0.0 0.0 0.0 0.0 0.0 0.0 0.0 0.0 0.0 0.0 0.0 0.0 0.0
3.7 0.5 0.0 0.0 0.0 0.0 1.8 1.2 1.2 0.0 0.1 0.1 0.0 0.0 0.0 0.0 0.0 0.0 0.0 0.0 0.0 0.0 0.0 0.0 0.0 0.0 0.0
0.1 0.0 0.1 0.2 2.4 2.6 0.7 1.4 1.1 0.0 0.2 0.6 0.0 0.0 0.0 0.0 0.0 0.0 0.0 0.0 0.0 0.0 0.0 0.0 0.0 0.0 0.0
0.0 0.1 0.5 0.3 0.3 1.4 1.5 0.9 0.3 0.1 0.1 2.0 0.1 0.1 0.0 0.0 0.0 0.0 0.0 0.0 0.0 0.0 0.0 0.0 0.0 0.0 0.0
0.2 0.1 0.0 0.0 0.0 1.0 2.1 2.5 1.7 0.0 0.0 0.8 0.2 0.0 0.0 0.0 0.0 0.0 0.0 0.0 0.0 0.0 0.0 0.0 0.0 0.0 0.0
0.0 0.0 0.0 0.0 0.0 0.1 2.3 8.7 4.1 3.5 0.0 3.9 1.1 1.2 7.0 0.5 0.0 0.0 0.0 0.0 0.0 0.0 0.0 0.0 0.0 0.3 0.6
0.0 0.0 0.0 0.0 0.1 0.1 0.7 6.5 12.0 8.1 0.0 7.6 10.2 3.9 9.9 5.5 2.2 2.0 0.0 0.0 0.9 0.7 0.3 0.6 0.6 0.7 2.6
0.0 0.1 0.2 0.2 0.1 0.1 0.2 0.7 1.6 6.2 2.0 3.9 18.3 7.4 14.0 9.9 3.0 2.0 2.4 2.6 3.6 6.4 6.5 3.6 1.2 0.8 0.5
0.4 0.3 0.2 0.1 0.2 0.3 0.0 0.0 0.0 1.8 2.3 3.1 7.8 8.5 11.2 10.7 6.2 2.5 4.3 1.7 5.5 8.0 5.4 4.3 4.0 3.2 3.7
2.2 1.4 1.4 2.1 3.1 2.9 4.7 3.0 5.2 3.5 3.5 3.9 5.7 7.8 10.1 4.1 6.8 4.4 3.8 7.7 4.4 5.2 4.3 3.2 2.0 2.1 2.6
4.4 5.7 4.6 3.9 3.2 3.3 4.5 5.4 6.9 4.1 4.8 4.8 3.7 3.9 3.5 4.2 7.3 3.0 4.0 4.6 5.8 6.9 5.4 4.7 4.1 3.8 1.8
5.2 5.7 7.3 6.2 5.3 4.1 4.2 6.0 7.0 4.4 4.8 4.7 5.2 5.2 3.9 2.4 2.8 7.1 5.2 5.5 6.2 6.0 5.6 8.2 6.2 5.5 0.3
6.1 6.3 7.2 6.4 4.9 5.3 4.8 4.8 4.2 3.5 3.9 4.4 6.0 9.9 13.1 5.8 3.4 3.3 12.2 9.0 5.8 5.3 4.5 5.1 7.7 6.1 1.1

GFSFLT2_prec_kuchsnow_153.txt.gz
Snowfall_Accumulation
0.0 0.2 0.2 0.3 0.1 0.0 0.0 0.0 0.0 0.0 0.0 0.0 0.0 0.0 0.0 0.0 0.0 0.0 0.0 0.0 0.0 0.0 0.0 0.0 0.0 0.0 0.0
0.1 0.9 1.6 1.0 0.4 0.1 0.0 0.0 0.0 0.0 0.0 0.0 0.0 0.0 0.0 0.0 0.0 0.0 0.0 0.0 0.0 0.0 0.0 0.0 0.0 0.0 0.0
0.5 0.9 0.5 0.2 0.1 0.1 0.0 0.0 0.0 0.0 0.0 0.0 0.0 0.0 0.0 0.0 0.0 0.0 0.0 0.0 0.0 0.0 0.0 0.0 0.0 0.0 0.0
0.3 0.8 0.7 0.2 0.2 0.1 0.1 0.0 0.0 0.0 0.0 0.0 0.0 0.0 0.0 0.0 0.0 0.0 0.0 0.0 0.0 0.0 0.0 0.0 0.0 0.0 0.0
2.0 1.3 0.4 0.1 0.1 0.0 0.0 0.0 0.2 0.0 0.0 0.0 0.0 0.0 0.0 0.0 0.0 0.0 0.0 0.0 0.0 0.0 0.0 0.0 0.0 0.0 0.0
3.7 0.5 0.0 0.0 0.0 0.0 1.8 1.2 1.2 0.0 0.1 0.1 0.0 0.0 0.0 0.0 0.0 0.0 0.0 0.0 0.0 0.0 0.0 0.0 0.0 0.0 0.0
0.1 0.0 0.1 0.2 2.4 2.6 0.7 1.4 1.1 0.0 0.2 0.6 0.0 0.0 0.0 0.0 0.0 0.0 0.0 0.0 0.0 0.0 0.0 0.0 0.0 0.0 0.0
0.0 0.1 0.5 0.3 0.3 1.4 1.5 0.9 0.3 0.1 0.1 2.0 0.1 0.1 0.0 0.0 0.0 0.0 0.0 0.0 0.0 0.0 0.0 0.0 0.0 0.0 0.0
0.2 0.1 0.0 0.0 0.0 1.0 2.1 2.5 1.7 0.0 0.0 0.8 0.2 0.0 0.0 0.0 0.0 0.0 0.0 0.0 0.0 0.0 0.0 0.0 0.0 0.0 0.0
0.0 0.0 0.0 0.0 0.0 0.1 2.3 8.7 4.1 3.5 0.0 3.9 1.1 1.2 7.0 0.5 0.0 0.0 0.0 0.0 0.0 0.0 0.0 0.0 0.0 0.3 0.6
0.0 0.0 0.0 0.0 0.1 0.1 0.7 6.5 12.0 8.1 0.0 7.6 10.2 3.9 9.9 5.5 2.2 2.0 0.0 0.0 0.9 0.7 0.3 0.6 0.6 0.7 2.6
0.0 0.1 0.2 0.2 0.1 0.1 0.2 0.7 1.6 6.2 2.0 3.9 18.3 7.4 14.0 9.9 3.0 2.0 2.4 2.6 3.6 6.4 6.5 3.6 1.2 0.8 0.5
0.4 0.3 0.2 0.1 0.2 0.3 0.0 0.0 0.0 1.8 2.3 3.1 7.8 8.5 11.2 10.7 6.2 2.5 4.3 1.7 5.5 8.0 5.4 4.3 4.0 3.2 3.7
2.2 1.4 1.4 2.1 3.1 2.9 4.7 3.0 5.2 3.5 3.5 3.9 5.7 7.8 10.1 4.1 6.8 4.4 3.8 7.7 4.4 5.2 4.3 3.2 2.0 2.1 2.6
4.4 5.7 4.6 3.9 3.2 3.3 4.5 5.4 6.9 4.1 4.8 4.8 3.7 3.9 3.5 4.2 7.3 3.0 4.0 4.6 5.8 6.9 5.4 4.7 4.1 3.8 1.8
5.2 5.7 7.3 6.2 5.3 4.1 4.2 6.0 7.0 4.4 4.8 4.7 5.2 5.2 3.9 2.4 2.8 7.1 5.2 5.5 6.2 6.0 5.6 8.3 6.2 5.5 0.3
6.1 6.3 7.2 6.4 4.9 5.3 4.8 4.8 4.2 3.5 3.9 4.4 6.0 9.9 13.1 5.8 3.4 3.3 12.2 9.0 5.8 5.3 4.5 5.1 7.7 6.1 1.1

GFSFLT2_prec_kuchsnow_159.txt.gz
Snowfall_Accumulation
0.0 0.2 0.2 0.3 0.1 0.0 0.0 0.0 0.0 0.0 0.0 0.0 0.0 0.0 0.0 0.0 0.0 0.0 0.0 0.0 0.0 0.0 0.0 0.0 0.0 0.0 0.0
0.1 0.9 1.6 1.0 0.4 0.1 0.0 0.0 0.0 0.0 0.0 0.0 0.0 0.0 0.0 0.0 0.0 0.0 0.0 0.0 0.0 0.0 0.0 0.0 0.0 0.0 0.0
0.5 0.9 0.5 0.2 0.1 0.1 0.0 0.0 0.0 0.0 0.0 0.0 0.0 0.0 0.0 0.0 0.0 0.0 0.0 0.0 0.0 0.0 0.0 0.0 0.0 0.0 0.0
0.3 0.8 0.7 0.2 0.2 0.1 0.1 0.0 0.0 0.0 0.0 0.0 0.0 0.0 0.0 0.0 0.0 0.0 0.0 0.0 0.0 0.0 0.0 0.0 0.0 0.0 0.0
2.0 1.3 0.4 0.1 0.1 0.0 0.0 0.0 0.2 0.0 0.0 0.0 0.0 0.0 0.0 0.0 0.0 0.0 0.0 0.0 0.0 0.0 0.0 0.0 0.0 0.0 0.0
3.7 0.5 0.0 0.0 0.0 0.0 1.8 1.2 1.2 0.0 0.1 0.1 0.0 0.0 0.0 0.0 0.0 0.0 0.0 0.0 0.0 0.0 0.0 0.0 0.0 0.0 0.0
0.1 0.0 0.1 0.2 2.4 2.6 0.7 1.4 1.1 0.0 0.2 0.6 0.0 0.0 0.0 0.0 0.0 0.0 0.0 0.0 0.0 0.0 0.0 0.0 0.0 0.0 0.0
0.0 0.1 0.5 0.3 0.3 1.4 1.5 0.9 0.3 0.1 0.1 2.0 0.1 0.1 0.0 0.0 0.0 0.0 0.0 0.0 0.0 0.0 0.0 0.0 0.0 0.0 0.0
0.2 0.1 0.0 0.0 0.0 1.0 2.1 2.5 1.7 0.0 0.0 0.8 0.2 0.0 0.0 0.0 0.0 0.0 0.0 0.0 0.0 0.0 0.0 0.0 0.0 0.0 0.0
0.0 0.0 0.0 0.0 0.0 0.1 2.3 8.7 4.1 3.5 0.0 3.9 1.1 1.2 7.0 0.5 0.0 0.0 0.0 0.0 0.0 0.0 0.0 0.0 0.0 0.3 0.6
0.0 0.0 0.0 0.0 0.1 0.1 0.7 6.5 12.0 8.1 0.0 7.6 10.2 3.9 9.9 5.5 2.2 2.0 0.0 0.0 0.9 0.7 0.3 0.6 0.6 0.7 2.6
0.0 0.1 0.2 0.2 0.1 0.1 0.2 0.7 1.6 6.2 2.0 3.9 18.3 7.4 14.0 9.9 3.0 2.0 2.4 2.6 3.6 6.4 6.5 3.6 1.2 0.8 0.5
0.4 0.3 0.2 0.1 0.2 0.3 0.0 0.0 0.0 1.8 2.3 3.1 7.8 8.5 11.2 10.7 6.2 2.5 4.3 1.7 5.5 8.0 5.4 4.3 4.0 3.2 3.7
2.2 1.4 1.4 2.1 3.1 2.9 4.7 3.0 5.2 3.5 3.5 3.9 5.7 7.8 10.1 4.1 6.8 4.4 3.8 7.7 4.4 5.2 4.3 3.2 2.0 2.1 2.6
4.4 5.7 4.6 3.9 3.2 3.3 4.5 5.4 6.9 4.1 4.8 4.8 3.7 3.9 3.5 4.2 7.3 3.0 4.0 4.6 5.8 6.9 5.4 4.7 4.1 3.8 1.8
5.2 5.7 7.3 6.2 5.3 4.1 4.2 6.0 7.0 4.4 4.8 4.7 5.2 5.2 3.9 2.4 2.8 7.1 5.2 5.5 6.2 6.0 5.6 8.3 6.2 5.5 0.3
6.1 6.3 7.2 6.5 5.0 5.4 4.8 4.8 4.2 3.5 3.9 4.4 6.0 9.9 13.1 5.8 3.4 3.3 12.2 9.0 5.8 5.3 4.5 5.1 7.7 6.1 1.1

GFSFLT2_prec_kuchsnow_162.txt.gz
Snowfall_Accumulation
0.0 0.2 0.2 0.3 0.1 0.0 0.0 0.0 0.0 0.0 0.0 0.0 0.0 0.0 0.0 0.0 0.0 0.0 0.0 0.0 0.0 0.0 0.0 0.0 0.0 0.0 0.0
0.1 0.9 1.6 1.0 0.4 0.1 0.0 0.0 0.0 0.0 0.0 0.0 0.0 0.0 0.0 0.0 0.0 0.0 0.0 0.0 0.0 0.0 0.0 0.0 0.0 0.0 0.0
0.5 0.9 0.5 0.2 0.1 0.1 0.0 0.0 0.0 0.0 0.0 0.0 0.0 0.0 0.0 0.0 0.0 0.0 0.0 0.0 0.0 0.0 0.0 0.0 0.0 0.0 0.0
0.3 0.8 0.7 0.2 0.2 0.1 0.1 0.0 0.0 0.0 0.0 0.0 0.0 0.0 0.0 0.0 0.0 0.0 0.0 0.0 0.0 0.0 0.0 0.0 0.0 0.0 0.0
2.0 1.3 0.4 0.1 0.1 0.0 0.0 0.0 0.2 0.0 0.0 0.0 0.0 0.0 0.0 0.0 0.0 0.0 0.0 0.0 0.0 0.0 0.0 0.0 0.0 0.0 0.0
3.7 0.5 0.0 0.0 0.0 0.0 1.8 1.2 1.2 0.0 0.1 0.1 0.0 0.0 0.0 0.0 0.0 0.0 0.0 0.0 0.0 0.0 0.0 0.0 0.0 0.0 0.0
0.1 0.0 0.1 0.2 2.4 2.6 0.7 1.4 1.1 0.0 0.2 0.6 0.0 0.0 0.0 0.0 0.0 0.0 0.0 0.0 0.0 0.0 0.0 0.0 0.0 0.0 0.0
0.0 0.1 0.5 0.3 0.3 1.4 1.5 0.9 0.3 0.1 0.1 2.0 0.1 0.1 0.0 0.0 0.0 0.0 0.0 0.0 0.0 0.0 0.0 0.0 0.0 0.0 0.0
0.2 0.1 0.0 0.0 0.0 1.0 2.1 2.5 1.7 0.0 0.0 0.8 0.2 0.0 0.0 0.0 0.0 0.0 0.0 0.0 0.0 0.0 0.0 0.0 0.0 0.0 0.0
0.0 0.0 0.0 0.0 0.0 0.1 2.3 8.7 4.1 3.5 0.0 3.9 1.1 1.2 7.0 0.5 0.0 0.0 0.0 0.0 0.0 0.0 0.0 0.0 0.0 0.3 0.6
0.0 0.0 0.0 0.0 0.1 0.1 0.7 6.5 12.0 8.1 0.0 7.6 10.2 3.9 9.9 5.5 2.2 2.0 0.0 0.0 0.9 0.7 0.3 0.6 0.6 0.7 2.6
0.0 0.1 0.2 0.2 0.1 0.1 0.2 0.7 1.6 6.2 2.0 3.9 18.3 7.4 14.0 9.9 3.0 2.0 2.4 2.6 3.6 6.4 6.5 3.6 1.2 0.8 0.5
0.4 0.3 0.2 0.1 0.2 0.3 0.0 0.0 0.0 1.8 2.3 3.1 7.8 8.5 11.2 10.7 6.2 2.5 4.3 1.7 5.5 8.0 5.4 4.3 4.0 3.2 3.7
2.2 1.4 1.4 2.1 3.1 2.9 4.7 3.0 5.2 3.5 3.5 3.9 5.7 7.8 10.1 4.1 6.8 4.4 3.8 7.7 4.4 5.2 4.3 3.2 2.0 2.1 2.6
4.4 5.7 4.6 3.9 3.2 3.3 4.5 5.4 6.9 4.1 4.8 4.8 3.7 3.9 3.5 4.2 7.3 3.0 4.0 4.6 5.8 6.9 5.4 4.7 4.1 3.8 1.8
5.3 5.7 7.3 6.2 5.3 4.1 4.2 6.1 7.0 4.4 4.8 4.7 5.2 5.2 3.9 2.4 2.8 7.1 5.2 5.5 6.2 6.0 5.6 8.3 6.2 5.5 0.3
6.5 6.6 7.5 6.6 5.1 5.5 5.0 5.0 4.3 3.6 3.9 4.4 6.0 10.0 13.1 5.8 3.4 3.3 12.2 9.0 5.8 5.3 4.5 5.1 7.7 6.1 1.1

GFSFLT2_prec_kuchsnow_165.txt.gz
Snowfall_Accumulation
0.0 0.2 0.2 0.3 0.1 0.0 0.0 0.0 0.0 0.0 0.0 0.0 0.0 0.0 0.0 0.0 0.0 0.0 0.0 0.0 0.0 0.0 0.0 0.0 0.0 0.0 0.0
0.1 0.9 1.6 1.0 0.4 0.1 0.0 0.0 0.0 0.0 0.0 0.0 0.0 0.0 0.0 0.0 0.0 0.0 0.0 0.0 0.0 0.0 0.0 0.0 0.0 0.0 0.0
0.5 0.9 0.5 0.2 0.1 0.1 0.0 0.0 0.0 0.0 0.0 0.0 0.0 0.0 0.0 0.0 0.0 0.0 0.0 0.0 0.0 0.0 0.0 0.0 0.0 0.0 0.0
0.3 0.8 0.7 0.2 0.2 0.1 0.1 0.0 0.0 0.0 0.0 0.0 0.0 0.0 0.0 0.0 0.0 0.0 0.0 0.0 0.0 0.0 0.0 0.0 0.0 0.0 0.0
2.0 1.3 0.4 0.1 0.1 0.0 0.0 0.0 0.2 0.0 0.0 0.0 0.0 0.0 0.0 0.0 0.0 0.0 0.0 0.0 0.0 0.0 0.0 0.0 0.0 0.0 0.0
3.7 0.5 0.0 0.0 0.0 0.0 1.8 1.2 1.2 0.0 0.1 0.1 0.0 0.0 0.0 0.0 0.0 0.0 0.0 0.0 0.0 0.0 0.0 0.0 0.0 0.0 0.0
0.1 0.0 0.1 0.2 2.4 2.6 0.7 1.4 1.1 0.0 0.2 0.6 0.0 0.0 0.0 0.0 0.0 0.0 0.0 0.0 0.0 0.0 0.0 0.0 0.0 0.0 0.0
0.0 0.1 0.5 0.3 0.3 1.4 1.5 0.9 0.3 0.1 0.1 2.0 0.1 0.1 0.0 0.0 0.0 0.0 0.0 0.0 0.0 0.0 0.0 0.0 0.0 0.0 0.0
0.2 0.1 0.0 0.0 0.0 1.0 2.1 2.5 1.7 0.0 0.0 0.8 0.2 0.0 0.0 0.0 0.0 0.0 0.0 0.0 0.0 0.0 0.0 0.0 0.0 0.0 0.0
0.0 0.0 0.0 0.0 0.0 0.1 2.3 8.7 4.1 3.5 0.0 3.9 1.1 1.2 7.0 0.5 0.0 0.0 0.0 0.0 0.0 0.0 0.0 0.0 0.0 0.3 0.6
0.0 0.0 0.0 0.0 0.1 0.1 0.7 6.5 12.0 8.1 0.0 7.6 10.2 3.9 9.9 5.5 2.2 2.0 0.0 0.0 0.9 0.7 0.3 0.6 0.6 0.7 2.6
0.0 0.1 0.2 0.2 0.1 0.1 0.2 0.7 1.6 6.2 2.0 3.9 18.3 7.4 14.0 9.9 3.0 2.0 2.4 2.6 3.6 6.4 6.5 3.6 1.2 0.8 0.5
0.4 0.3 0.2 0.1 0.2 0.3 0.0 0.0 0.0 1.8 2.3 3.1 7.8 8.5 11.2 10.7 6.2 2.5 4.3 1.7 5.5 8.0 5.4 4.3 4.0 3.2 3.7
2.2 1.4 1.4 2.1 3.1 2.9 4.7 3.0 5.2 3.5 3.5 3.9 5.7 7.8 10.1 4.1 6.8 4.4 3.8 7.7 4.4 5.2 4.3 3.2 2.0 2.1 2.6
4.4 5.7 4.6 3.9 3.3 3.3 4.5 5.4 6.9 4.1 4.8 4.8 3.7 3.9 3.5 4.2 7.3 3.0 4.0 4.6 5.8 6.9 5.4 4.7 4.1 3.8 1.8
5.4 5.9 7.5 6.4 5.5 4.2 4.2 6.1 7.0 4.4 4.8 4.7 5.2 5.2 3.9 2.4 2.8 7.1 5.2 5.5 6.2 6.0 5.6 8.3 6.2 5.5 0.3
6.5 6.7 7.8 7.0 5.5 5.7 5.2 5.0 4.5 3.7 3.9 4.4 6.0 10.0 13.6 6.1 3.4 3.3 12.2 9.0 5.8 5.3 4.5 5.1 7.7 6.1 1.1

GFSFLT2_prec_kuchsnow_168.txt.gz
Snowfall_Accumulation
0.0 0.2 0.2 0.3 0.1 0.0 0.0 0.0 0.0 0.0 0.0 0.0 0.0 0.0 0.0 0.0 0.0 0.0 0.0 0.0 0.0 0.0 0.0 0.0 0.0 0.0 0.0
0.1 0.9 1.6 1.0 0.4 0.1 0.0 0.0 0.0 0.0 0.0 0.0 0.0 0.0 0.0 0.0 0.0 0.0 0.0 0.0 0.0 0.0 0.0 0.0 0.0 0.0 0.0
0.5 0.9 0.5 0.2 0.1 0.1 0.0 0.0 0.0 0.0 0.0 0.0 0.0 0.0 0.0 0.0 0.0 0.0 0.0 0.0 0.0 0.0 0.0 0.0 0.0 0.0 0.0
0.3 0.8 0.7 0.2 0.2 0.1 0.1 0.0 0.0 0.0 0.0 0.0 0.0 0.0 0.0 0.0 0.0 0.0 0.0 0.0 0.0 0.0 0.0 0.0 0.0 0.0 0.0
2.0 1.3 0.4 0.1 0.1 0.0 0.0 0.0 0.2 0.0 0.0 0.0 0.0 0.0 0.0 0.0 0.0 0.0 0.0 0.0 0.0 0.0 0.0 0.0 0.0 0.0 0.0
3.7 0.5 0.0 0.0 0.0 0.0 1.8 1.2 1.2 0.0 0.1 0.1 0.0 0.0 0.0 0.0 0.0 0.0 0.0 0.0 0.0 0.0 0.0 0.0 0.0 0.0 0.0
0.1 0.0 0.1 0.2 2.4 2.6 0.7 1.4 1.1 0.0 0.2 0.6 0.0 0.0 0.0 0.0 0.0 0.0 0.0 0.0 0.0 0.0 0.0 0.0 0.0 0.0 0.0
0.0 0.1 0.5 0.3 0.3 1.4 1.5 0.9 0.3 0.1 0.1 2.0 0.1 0.1 0.0 0.0 0.0 0.0 0.0 0.0 0.0 0.0 0.0 0.0 0.0 0.0 0.0
0.2 0.1 0.0 0.0 0.0 1.0 2.1 2.5 1.7 0.0 0.0 0.8 0.2 0.0 0.0 0.0 0.0 0.0 0.0 0.0 0.0 0.0 0.0 0.0 0.0 0.0 0.0
0.0 0.0 0.0 0.0 0.0 0.1 2.3 8.7 4.1 3.5 0.0 3.9 1.1 1.2 7.0 0.5 0.0 0.0 0.0 0.0 0.0 0.0 0.0 0.0 0.0 0.3 0.6
0.0 0.0 0.0 0.0 0.1 0.1 0.7 6.5 12.0 8.1 0.0 7.6 10.2 3.9 9.9 5.5 2.2 2.0 0.0 0.0 0.9 0.7 0.3 0.6 0.6 0.7 2.6
0.0 0.1 0.2 0.2 0.1 0.1 0.2 0.7 1.6 6.2 2.0 3.9 18.3 7.4 14.0 9.9 3.0 2.0 2.4 2.6 3.6 6.4 6.5 3.6 1.2 0.8 0.5
0.4 0.3 0.2 0.1 0.2 0.3 0.0 0.0 0.0 1.8 2.3 3.1 7.8 8.5 11.2 10.7 6.2 2.5 4.3 1.7 5.5 8.0 5.4 4.3 4.0 3.2 3.7
2.2 1.4 1.4 2.1 3.1 2.9 4.7 3.0 5.2 3.5 3.5 3.9 5.7 7.8 10.1 4.1 6.8 4.4 3.8 7.7 4.4 5.2 4.3 3.2 2.0 2.1 2.6
4.4 5.7 4.6 3.9 3.3 3.3 4.5 5.4 6.9 4.1 4.8 4.8 3.7 3.9 3.5 4.2 7.3 3.0 4.0 4.6 5.8 6.9 5.4 4.7 4.1 3.8 1.8
5.4 5.9 7.7 6.6 5.7 4.5 4.4 6.2 7.1 4.4 4.8 4.7 5.2 5.2 3.9 2.4 2.8 7.1 5.2 5.5 6.2 6.0 5.6 8.3 6.2 5.5 0.3
6.5 6.8 7.8 7.4 5.9 6.1 5.5 5.2 4.7 3.8 4.1 4.4 6.1 10.1 13.7 6.2 3.4 3.3 12.3 9.0 5.8 5.3 4.5 5.1 7.7 6.1 1.1

GFSFLT2_prec_kuchsnow_171.txt.gz
Snowfall_Accumulation
0.0 0.2 0.2 0.3 0.1 0.0 0.0 0.0 0.0 0.0 0.0 0.0 0.0 0.0 0.0 0.0 0.0 0.0 0.0 0.0 0.0 0.0 0.0 0.0 0.0 0.0 0.0
0.1 0.9 1.6 1.0 0.4 0.1 0.0 0.0 0.0 0.0 0.0 0.0 0.0 0.0 0.0 0.0 0.0 0.0 0.0 0.0 0.0 0.0 0.0 0.0 0.0 0.0 0.0
0.5 0.9 0.5 0.2 0.1 0.1 0.0 0.0 0.0 0.0 0.0 0.0 0.0 0.0 0.0 0.0 0.0 0.0 0.0 0.0 0.0 0.0 0.0 0.0 0.0 0.0 0.0
0.3 0.8 0.7 0.2 0.2 0.1 0.1 0.0 0.0 0.0 0.0 0.0 0.0 0.0 0.0 0.0 0.0 0.0 0.0 0.0 0.0 0.0 0.0 0.0 0.0 0.0 0.0
2.0 1.3 0.4 0.1 0.1 0.0 0.0 0.0 0.2 0.0 0.0 0.0 0.0 0.0 0.0 0.0 0.0 0.0 0.0 0.0 0.0 0.0 0.0 0.0 0.0 0.0 0.0
3.7 0.5 0.0 0.0 0.0 0.0 1.8 1.2 1.2 0.0 0.1 0.1 0.0 0.0 0.0 0.0 0.0 0.0 0.0 0.0 0.0 0.0 0.0 0.0 0.0 0.0 0.0
0.1 0.0 0.1 0.2 2.4 2.6 0.7 1.4 1.1 0.0 0.2 0.6 0.0 0.0 0.0 0.0 0.0 0.0 0.0 0.0 0.0 0.0 0.0 0.0 0.0 0.0 0.0
0.0 0.1 0.5 0.3 0.3 1.4 1.5 0.9 0.3 0.1 0.1 2.0 0.1 0.1 0.0 0.0 0.0 0.0 0.0 0.0 0.0 0.0 0.0 0.0 0.0 0.0 0.0
0.2 0.1 0.0 0.0 0.0 1.0 2.1 2.5 1.7 0.0 0.0 0.8 0.2 0.0 0.0 0.0 0.0 0.0 0.0 0.0 0.0 0.0 0.0 0.0 0.0 0.0 0.0
0.0 0.0 0.0 0.0 0.0 0.1 2.3 8.7 4.1 3.5 0.0 3.9 1.1 1.2 7.0 0.5 0.0 0.0 0.0 0.0 0.0 0.0 0.0 0.0 0.0 0.3 0.6
0.0 0.0 0.0 0.0 0.1 0.1 0.7 6.5 12.0 8.1 0.0 7.6 10.2 3.9 9.9 5.5 2.2 2.0 0.0 0.0 0.9 0.7 0.3 0.6 0.6 0.7 2.6
0.0 0.1 0.2 0.2 0.1 0.1 0.2 0.7 1.6 6.2 2.0 3.9 18.3 7.4 14.0 9.9 3.0 2.0 2.4 2.6 3.6 6.4 6.5 3.6 1.2 0.8 0.5
0.4 0.3 0.2 0.1 0.2 0.3 0.0 0.0 0.0 1.8 2.3 3.1 7.8 8.5 11.2 10.7 6.2 2.5 4.3 1.7 5.5 8.0 5.4 4.3 4.0 3.2 3.7
2.2 1.4 1.4 2.1 3.1 2.9 4.7 3.0 5.2 3.5 3.5 3.9 5.7 7.8 10.1 4.1 6.8 4.4 3.8 7.7 4.4 5.2 4.3 3.2 2.0 2.1 2.6
4.4 5.7 4.6 3.9 3.3 3.3 4.5 5.4 6.9 4.1 4.8 4.8 3.7 3.9 3.5 4.2 7.3 3.0 4.0 4.6 5.8 6.9 5.4 4.7 4.1 3.8 1.8
5.4 5.9 7.7 6.7 5.9 4.7 4.6 6.4 7.2 4.4 4.9 4.7 5.2 5.2 3.9 2.4 2.8 7.1 5.2 5.5 6.2 6.0 5.6 8.3 6.2 5.5 0.3
6.5 6.8 7.8 7.5 6.2 6.4 5.7 5.5 4.9 4.0 4.3 4.6 6.3 10.2 13.9 6.2 3.4 3.3 12.3 9.0 5.8 5.3 4.5 5.1 7.7 6.1 1.1

GFSFLT2_prec_kuchsnow_174.txt.gz
Snowfall_Accumulation
0.0 0.2 0.2 0.3 0.1 0.0 0.0 0.0 0.0 0.0 0.0 0.0 0.0 0.0 0.0 0.0 0.0 0.0 0.0 0.0 0.0 0.0 0.0 0.0 0.0 0.0 0.0
0.1 0.9 1.6 1.0 0.4 0.1 0.0 0.0 0.0 0.0 0.0 0.0 0.0 0.0 0.0 0.0 0.0 0.0 0.0 0.0 0.0 0.0 0.0 0.0 0.0 0.0 0.0
0.5 0.9 0.5 0.2 0.1 0.1 0.0 0.0 0.0 0.0 0.0 0.0 0.0 0.0 0.0 0.0 0.0 0.0 0.0 0.0 0.0 0.0 0.0 0.0 0.0 0.0 0.0
0.3 0.8 0.7 0.2 0.2 0.1 0.1 0.0 0.0 0.0 0.0 0.0 0.0 0.0 0.0 0.0 0.0 0.0 0.0 0.0 0.0 0.0 0.0 0.0 0.0 0.0 0.0
2.0 1.3 0.4 0.1 0.1 0.0 0.0 0.0 0.2 0.0 0.0 0.0 0.0 0.0 0.0 0.0 0.0 0.0 0.0 0.0 0.0 0.0 0.0 0.0 0.0 0.0 0.0
3.7 0.5 0.0 0.0 0.0 0.0 1.8 1.2 1.2 0.0 0.1 0.1 0.0 0.0 0.0 0.0 0.0 0.0 0.0 0.0 0.0 0.0 0.0 0.0 0.0 0.0 0.0
0.1 0.0 0.1 0.2 2.4 2.6 0.7 1.4 1.1 0.0 0.2 0.6 0.0 0.0 0.0 0.0 0.0 0.0 0.0 0.0 0.0 0.0 0.0 0.0 0.0 0.0 0.0
0.0 0.1 0.5 0.3 0.3 1.4 1.5 0.9 0.3 0.1 0.1 2.0 0.1 0.1 0.0 0.0 0.0 0.0 0.0 0.0 0.0 0.0 0.0 0.0 0.0 0.0 0.0
0.2 0.1 0.0 0.0 0.0 1.0 2.1 2.5 1.7 0.0 0.0 0.8 0.2 0.0 0.0 0.0 0.0 0.0 0.0 0.0 0.0 0.0 0.0 0.0 0.0 0.0 0.0
0.0 0.0 0.0 0.0 0.0 0.1 2.3 8.7 4.1 3.5 0.0 3.9 1.1 1.2 7.0 0.5 0.0 0.0 0.0 0.0 0.0 0.0 0.0 0.0 0.0 0.3 0.6
0.0 0.0 0.0 0.0 0.1 0.1 0.7 6.5 12.0 8.1 0.0 7.6 10.2 3.9 9.9 5.5 2.2 2.0 0.0 0.0 0.9 0.7 0.3 0.6 0.6 0.7 2.6
0.0 0.1 0.2 0.2 0.1 0.1 0.2 0.7 1.6 6.2 2.0 3.9 18.3 7.4 14.0 9.9 3.0 2.0 2.4 2.6 3.6 6.4 6.5 3.6 1.2 0.8 0.5
0.4 0.3 0.2 0.1 0.2 0.3 0.0 0.0 0.0 1.8 2.3 3.1 7.8 8.5 11.2 10.7 6.2 2.5 4.3 1.7 5.5 8.0 5.4 4.3 4.0 3.2 3.7
2.2 1.4 1.4 2.1 3.1 2.9 4.7 3.0 5.2 3.5 3.5 3.9 5.7 7.8 10.1 4.1 6.8 4.4 3.8 7.7 4.4 5.2 4.3 3.2 2.0 2.1 2.6
4.4 5.7 4.6 3.9 3.3 3.3 4.5 5.6 7.1 4.1 4.8 4.8 3.7 3.9 3.5 4.2 7.3 3.0 4.0 4.6 5.8 6.9 5.4 4.7 4.1 3.8 1.8
5.4 5.9 7.7 6.7 5.9 4.9 4.8 6.5 7.3 4.4 4.9 4.7 5.4 5.5 4.0 2.4 2.8 7.1 5.2 5.5 6.2 6.0 5.6 8.3 6.2 5.5 0.3
6.5 6.8 7.8 7.5 6.3 6.6 5.7 5.7 5.0 4.0 4.3 4.6 6.5 10.5 14.1 6.2 3.4 3.3 12.3 9.0 5.8 5.3 4.5 5.1 7.7 6.1 1.1

GFSFLT2_prec_kuchsnow_177.txt.gz
Snowfall_Accumulation
0.0 0.2 0.2 0.3 0.1 0.0 0.0 0.0 0.0 0.0 0.0 0.0 0.0 0.0 0.0 0.0 0.0 0.0 0.0 0.0 0.0 0.0 0.0 0.0 0.0 0.0 0.0
0.1 0.9 1.6 1.0 0.4 0.1 0.0 0.0 0.0 0.0 0.0 0.0 0.0 0.0 0.0 0.0 0.0 0.0 0.0 0.0 0.0 0.0 0.0 0.0 0.0 0.0 0.0
0.5 0.9 0.5 0.2 0.1 0.1 0.0 0.0 0.0 0.0 0.0 0.0 0.0 0.0 0.0 0.0 0.0 0.0 0.0 0.0 0.0 0.0 0.0 0.0 0.0 0.0 0.0
0.3 0.8 0.7 0.2 0.2 0.1 0.1 0.0 0.0 0.0 0.0 0.0 0.0 0.0 0.0 0.0 0.0 0.0 0.0 0.0 0.0 0.0 0.0 0.0 0.0 0.0 0.0
2.0 1.3 0.4 0.1 0.1 0.0 0.0 0.0 0.2 0.0 0.0 0.0 0.0 0.0 0.0 0.0 0.0 0.0 0.0 0.0 0.0 0.0 0.0 0.0 0.0 0.0 0.0
3.7 0.5 0.0 0.0 0.0 0.0 1.8 1.2 1.2 0.0 0.1 0.1 0.0 0.0 0.0 0.0 0.0 0.0 0.0 0.0 0.0 0.0 0.0 0.0 0.0 0.0 0.0
0.1 0.0 0.1 0.2 2.4 2.6 0.7 1.4 1.1 0.0 0.2 0.6 0.0 0.0 0.0 0.0 0.0 0.0 0.0 0.0 0.0 0.0 0.0 0.0 0.0 0.0 0.0
0.0 0.1 0.5 0.3 0.3 1.4 1.5 0.9 0.3 0.1 0.1 2.0 0.1 0.1 0.0 0.0 0.0 0.0 0.0 0.0 0.0 0.0 0.0 0.0 0.0 0.0 0.0
0.2 0.1 0.0 0.0 0.0 1.0 2.1 2.5 1.7 0.0 0.0 0.8 0.2 0.0 0.0 0.0 0.0 0.0 0.0 0.0 0.0 0.0 0.0 0.0 0.0 0.0 0.0
0.0 0.0 0.0 0.0 0.0 0.1 2.3 8.7 4.1 3.5 0.0 3.9 1.1 1.2 7.0 0.5 0.0 0.0 0.0 0.0 0.0 0.0 0.0 0.0 0.0 0.3 0.6
0.0 0.0 0.0 0.0 0.1 0.1 0.7 6.5 12.0 8.1 0.0 7.6 10.2 3.9 9.9 5.5 2.2 2.0 0.0 0.0 0.9 0.7 0.3 0.6 0.6 0.7 2.6
0.0 0.1 0.2 0.2 0.1 0.1 0.2 0.7 1.6 6.2 2.0 3.9 18.3 7.4 14.0 9.9 3.0 2.0 2.4 2.6 3.6 6.4 6.5 3.6 1.2 0.8 0.5
0.4 0.3 0.2 0.1 0.2 0.3 0.0 0.0 0.0 1.8 2.3 3.1 7.8 8.5 11.2 10.7 6.2 2.5 4.3 1.7 5.5 8.0 5.4 4.3 4.0 3.2 3.7
2.2 1.4 1.4 2.1 3.1 2.9 4.7 3.0 5.2 3.5 3.5 3.9 5.7 7.8 10.1 4.1 6.8 4.4 3.8 7.7 4.4 5.2 4.3 3.2 2.0 2.1 2.6
4.4 5.7 4.6 3.9 3.3 3.3 4.5 5.6 7.3 4.1 4.8 4.9 3.8 3.9 3.5 4.2 7.3 3.0 4.0 4.6 5.8 6.9 5.4 4.7 4.1 3.8 1.8
5.4 5.9 7.7 6.7 5.9 4.9 4.8 6.7 7.4 4.5 4.9 4.7 5.7 5.7 4.1 2.4 2.8 7.1 5.2 5.5 6.2 6.0 5.6 8.3 6.2 5.5 0.3
6.6 6.8 7.8 7.5 6.4 6.6 5.7 5.8 5.1 4.0 4.3 4.7 6.6 10.7 14.3 6.3 3.4 3.3 12.3 9.0 5.8 5.3 4.5 5.1 7.7 6.1 1.1

GFSFLT2_prec_kuchsnow_180.txt.gz
Snowfall_Accumulation
0.0 0.2 0.2 0.3 0.1 0.0 0.0 0.0 0.0 0.0 0.0 0.0 0.0 0.0 0.0 0.0 0.0 0.0 0.0 0.0 0.0 0.0 0.0 0.0 0.0 0.0 0.0
0.1 0.9 1.6 1.0 0.4 0.1 0.0 0.0 0.0 0.0 0.0 0.0 0.0 0.0 0.0 0.0 0.0 0.0 0.0 0.0 0.0 0.0 0.0 0.0 0.0 0.0 0.0
0.5 0.9 0.5 0.2 0.1 0.1 0.0 0.0 0.0 0.0 0.0 0.0 0.0 0.0 0.0 0.0 0.0 0.0 0.0 0.0 0.0 0.0 0.0 0.0 0.0 0.0 0.0
0.3 0.8 0.7 0.2 0.2 0.1 0.1 0.0 0.0 0.0 0.0 0.0 0.0 0.0 0.0 0.0 0.0 0.0 0.0 0.0 0.0 0.0 0.0 0.0 0.0 0.0 0.0
2.0 1.3 0.4 0.1 0.1 0.0 0.0 0.0 0.2 0.0 0.0 0.0 0.0 0.0 0.0 0.0 0.0 0.0 0.0 0.0 0.0 0.0 0.0 0.0 0.0 0.0 0.0
3.7 0.5 0.0 0.0 0.0 0.0 1.8 1.2 1.2 0.0 0.1 0.1 0.0 0.0 0.0 0.0 0.0 0.0 0.0 0.0 0.0 0.0 0.0 0.0 0.0 0.0 0.0
0.1 0.0 0.1 0.2 2.4 2.6 0.7 1.4 1.1 0.0 0.2 0.6 0.0 0.0 0.0 0.0 0.0 0.0 0.0 0.0 0.0 0.0 0.0 0.0 0.0 0.0 0.0
0.0 0.1 0.5 0.3 0.3 1.4 1.5 0.9 0.3 0.1 0.1 2.0 0.1 0.1 0.0 0.0 0.0 0.0 0.0 0.0 0.0 0.0 0.0 0.0 0.0 0.0 0.0
0.2 0.1 0.0 0.0 0.0 1.0 2.1 2.5 1.7 0.0 0.0 0.8 0.2 0.0 0.0 0.0 0.0 0.0 0.0 0.0 0.0 0.0 0.0 0.0 0.0 0.0 0.0
0.0 0.0 0.0 0.0 0.0 0.1 2.3 8.7 4.1 3.5 0.0 3.9 1.1 1.2 7.0 0.5 0.0 0.0 0.0 0.0 0.0 0.0 0.0 0.0 0.0 0.3 0.6
0.0 0.0 0.0 0.0 0.1 0.1 0.7 6.5 12.0 8.1 0.0 7.6 10.2 3.9 9.9 5.5 2.2 2.0 0.0 0.0 0.9 0.7 0.3 0.6 0.6 0.7 2.6
0.0 0.1 0.2 0.2 0.1 0.1 0.2 0.7 1.6 6.2 2.0 3.9 18.3 7.4 14.0 9.9 3.0 2.0 2.4 2.6 3.6 6.4 6.5 3.6 1.2 0.8 0.5
0.4 0.3 0.2 0.1 0.2 0.3 0.0 0.0 0.0 1.8 2.3 3.1 7.8 8.5 11.2 10.7 6.2 2.5 4.3 1.7 5.5 8.0 5.4 4.3 4.0 3.2 3.7
2.2 1.4 1.4 2.1 3.1 2.9 4.7 3.0 5.2 3.5 3.5 3.9 5.7 7.8 10.1 4.1 6.8 4.4 3.8 7.7 4.4 5.2 4.3 3.2 2.0 2.1 2.6
4.4 5.7 4.6 3.9 3.3 3.3 4.5 5.6 7.4 4.1 4.8 5.0 4.0 4.2 3.7 4.2 7.3 3.0 4.0 4.6 5.8 6.9 5.4 4.7 4.1 3.8 1.8
5.4 5.9 7.7 6.7 5.9 4.9 4.8 6.7 7.4 4.5 5.0 4.9 6.2 6.1 4.2 2.4 2.8 7.1 5.2 5.5 6.2 6.0 5.6 8.3 6.2 5.5 0.3
6.6 6.8 7.8 7.5 6.5 6.6 5.7 5.8 5.2 4.0 4.3 4.9 6.9 11.0 14.5 6.3 3.4 3.3 12.3 9.0 5.8 5.3 4.5 5.1 7.7 6.1 1.1

GFSFLT2_prec_kuchsnow_183.txt.gz
Snowfall_Accumulation
0.0 0.2 0.2 0.3 0.1 0.0 0.0 0.0 0.0 0.0 0.0 0.0 0.0 0.0 0.0 0.0 0.0 0.0 0.0 0.0 0.0 0.0 0.0 0.0 0.0 0.0 0.0
0.1 0.9 1.6 1.0 0.4 0.1 0.0 0.0 0.0 0.0 0.0 0.0 0.0 0.0 0.0 0.0 0.0 0.0 0.0 0.0 0.0 0.0 0.0 0.0 0.0 0.0 0.0
0.5 0.9 0.5 0.2 0.1 0.1 0.0 0.0 0.0 0.0 0.0 0.0 0.0 0.0 0.0 0.0 0.0 0.0 0.0 0.0 0.0 0.0 0.0 0.0 0.0 0.0 0.0
0.3 0.8 0.7 0.2 0.2 0.1 0.1 0.0 0.0 0.0 0.0 0.0 0.0 0.0 0.0 0.0 0.0 0.0 0.0 0.0 0.0 0.0 0.0 0.0 0.0 0.0 0.0
2.0 1.3 0.4 0.1 0.1 0.0 0.0 0.0 0.2 0.0 0.0 0.0 0.0 0.0 0.0 0.0 0.0 0.0 0.0 0.0 0.0 0.0 0.0 0.0 0.0 0.0 0.0
3.7 0.5 0.0 0.0 0.0 0.0 1.8 1.2 1.2 0.0 0.1 0.1 0.0 0.0 0.0 0.0 0.0 0.0 0.0 0.0 0.0 0.0 0.0 0.0 0.0 0.0 0.0
0.1 0.0 0.1 0.2 2.4 2.6 0.7 1.4 1.1 0.0 0.2 0.6 0.0 0.0 0.0 0.0 0.0 0.0 0.0 0.0 0.0 0.0 0.0 0.0 0.0 0.0 0.0
0.0 0.1 0.5 0.3 0.3 1.4 1.5 0.9 0.3 0.1 0.1 2.0 0.1 0.1 0.0 0.0 0.0 0.0 0.0 0.0 0.0 0.0 0.0 0.0 0.0 0.0 0.0
0.2 0.1 0.0 0.0 0.0 1.0 2.1 2.5 1.7 0.0 0.0 0.8 0.2 0.0 0.0 0.0 0.0 0.0 0.0 0.0 0.0 0.0 0.0 0.0 0.0 0.0 0.0
0.0 0.0 0.0 0.0 0.0 0.1 2.3 8.7 4.1 3.5 0.0 3.9 1.1 1.2 7.0 0.5 0.0 0.0 0.0 0.0 0.0 0.0 0.0 0.0 0.0 0.3 0.6
0.0 0.0 0.0 0.0 0.1 0.1 0.7 6.5 12.0 8.1 0.0 7.6 10.2 3.9 9.9 5.5 2.2 2.0 0.0 0.0 0.9 0.7 0.3 0.6 0.6 0.7 2.6
0.0 0.1 0.2 0.2 0.1 0.1 0.2 0.7 1.6 6.2 2.0 3.9 18.3 7.4 14.0 9.9 3.0 2.0 2.4 2.6 3.6 6.4 6.5 3.6 1.2 0.8 0.5
0.4 0.3 0.2 0.1 0.2 0.3 0.0 0.0 0.0 1.8 2.3 3.1 7.8 8.5 11.2 10.7 6.2 2.5 4.3 1.7 5.5 8.0 5.4 4.3 4.0 3.2 3.7
2.2 1.4 1.4 2.1 3.1 2.9 4.7 3.0 5.2 3.5 3.5 3.9 5.7 7.8 10.2 4.1 6.8 4.4 3.8 7.7 4.4 5.2 4.3 3.2 2.0 2.1 2.6
4.4 5.7 4.6 3.9 3.3 3.3 4.5 5.6 7.4 4.1 4.8 5.0 4.3 4.5 3.9 4.2 7.3 3.0 4.0 4.6 5.8 6.9 5.4 4.7 4.1 3.8 1.8
5.4 5.9 7.7 6.7 5.9 4.9 4.8 6.7 7.4 4.5 5.0 4.9 6.6 6.5 4.4 2.4 2.8 7.1 5.2 5.5 6.2 6.0 5.6 8.3 6.2 5.5 0.3
6.6 6.8 7.8 7.5 6.5 6.6 5.7 5.9 5.2 4.0 4.3 5.1 7.3 11.3 14.6 6.3 3.4 3.3 12.3 9.0 5.8 5.3 4.5 5.1 7.7 6.1 1.1

GFSFLT2_prec_kuchsnow_186.txt.gz
Snowfall_Accumulation
0.0 0.2 0.2 0.3 0.1 0.0 0.0 0.0 0.0 0.0 0.0 0.0 0.0 0.0 0.0 0.0 0.0 0.0 0.0 0.0 0.0 0.0 0.0 0.0 0.0 0.0 0.0
0.1 0.9 1.6 1.0 0.4 0.1 0.0 0.0 0.0 0.0 0.0 0.0 0.0 0.0 0.0 0.0 0.0 0.0 0.0 0.0 0.0 0.0 0.0 0.0 0.0 0.0 0.0
0.5 0.9 0.5 0.2 0.1 0.1 0.0 0.0 0.0 0.0 0.0 0.0 0.0 0.0 0.0 0.0 0.0 0.0 0.0 0.0 0.0 0.0 0.0 0.0 0.0 0.0 0.0
0.3 0.8 0.7 0.2 0.2 0.1 0.1 0.0 0.0 0.0 0.0 0.0 0.0 0.0 0.0 0.0 0.0 0.0 0.0 0.0 0.0 0.0 0.0 0.0 0.0 0.0 0.0
2.0 1.3 0.4 0.1 0.1 0.0 0.0 0.0 0.2 0.0 0.0 0.0 0.0 0.0 0.0 0.0 0.0 0.0 0.0 0.0 0.0 0.0 0.0 0.0 0.0 0.0 0.0
3.7 0.5 0.0 0.0 0.0 0.0 1.8 1.2 1.2 0.0 0.1 0.1 0.0 0.0 0.0 0.0 0.0 0.0 0.0 0.0 0.0 0.0 0.0 0.0 0.0 0.0 0.0
0.1 0.0 0.1 0.2 2.4 2.6 0.7 1.4 1.1 0.0 0.2 0.6 0.0 0.0 0.0 0.0 0.0 0.0 0.0 0.0 0.0 0.0 0.0 0.0 0.0 0.0 0.0
0.0 0.1 0.5 0.3 0.3 1.4 1.5 0.9 0.3 0.1 0.1 2.0 0.1 0.1 0.0 0.0 0.0 0.0 0.0 0.0 0.0 0.0 0.0 0.0 0.0 0.0 0.0
0.2 0.1 0.0 0.0 0.0 1.0 2.1 2.5 1.7 0.0 0.0 0.8 0.2 0.0 0.0 0.0 0.0 0.0 0.0 0.0 0.0 0.0 0.0 0.0 0.0 0.0 0.0
0.0 0.0 0.0 0.0 0.0 0.1 2.3 8.7 4.1 3.5 0.0 3.9 1.1 1.2 7.0 0.5 0.0 0.0 0.0 0.0 0.0 0.0 0.0 0.0 0.0 0.3 0.6
0.0 0.0 0.0 0.0 0.1 0.1 0.7 6.5 12.0 8.1 0.0 7.6 10.2 3.9 9.9 5.5 2.2 2.0 0.0 0.0 0.9 0.7 0.3 0.6 0.6 0.7 2.6
0.0 0.1 0.2 0.2 0.1 0.1 0.2 0.7 1.6 6.2 2.0 3.9 18.3 7.4 14.0 9.9 3.0 2.0 2.4 2.6 3.6 6.4 6.5 3.6 1.2 0.8 0.5
0.4 0.3 0.2 0.1 0.2 0.3 0.0 0.0 0.0 1.8 2.3 3.1 7.8 8.5 11.2 10.7 6.2 2.5 4.3 1.7 5.5 8.0 5.4 4.3 4.0 3.2 3.7
2.2 1.4 1.4 2.1 3.1 2.9 4.7 3.0 5.2 3.5 3.5 3.9 5.7 7.8 10.3 4.1 6.8 4.4 3.8 7.7 4.4 5.2 4.3 3.2 2.0 2.1 2.6
4.4 5.7 4.6 3.9 3.3 3.3 4.6 5.7 7.4 4.1 4.8 5.0 4.3 4.8 4.2 4.4 7.4 3.0 4.0 4.6 5.8 6.9 5.4 4.7 4.1 3.8 1.8
5.4 5.9 7.7 6.7 5.9 4.9 4.8 6.8 7.5 4.6 5.0 4.9 6.6 6.9 4.7 2.5 2.8 7.1 5.2 5.5 6.2 6.0 5.6 8.3 6.2 5.5 0.3
6.6 6.8 7.8 7.5 6.6 6.6 5.7 5.9 5.2 4.0 4.3 5.2 7.5 11.5 14.8 6.3 3.4 3.3 12.3 9.0 5.8 5.3 4.5 5.1 7.7 6.1 1.1

GFSFLT2_prec_kuchsnow_189.txt.gz
Snowfall_Accumulation
0.0 0.2 0.2 0.3 0.1 0.0 0.0 0.0 0.0 0.0 0.0 0.0 0.0 0.0 0.0 0.0 0.0 0.0 0.0 0.0 0.0 0.0 0.0 0.0 0.0 0.0 0.0
0.1 0.9 1.6 1.0 0.4 0.1 0.0 0.0 0.0 0.0 0.0 0.0 0.0 0.0 0.0 0.0 0.0 0.0 0.0 0.0 0.0 0.0 0.0 0.0 0.0 0.0 0.0
0.5 0.9 0.5 0.2 0.1 0.1 0.0 0.0 0.0 0.0 0.0 0.0 0.0 0.0 0.0 0.0 0.0 0.0 0.0 0.0 0.0 0.0 0.0 0.0 0.0 0.0 0.0
0.3 0.8 0.7 0.2 0.2 0.1 0.1 0.0 0.0 0.0 0.0 0.0 0.0 0.0 0.0 0.0 0.0 0.0 0.0 0.0 0.0 0.0 0.0 0.0 0.0 0.0 0.0
2.0 1.3 0.4 0.1 0.1 0.0 0.0 0.0 0.2 0.0 0.0 0.0 0.0 0.0 0.0 0.0 0.0 0.0 0.0 0.0 0.0 0.0 0.0 0.0 0.0 0.0 0.0
3.7 0.5 0.0 0.0 0.0 0.0 1.8 1.2 1.2 0.0 0.1 0.1 0.0 0.0 0.0 0.0 0.0 0.0 0.0 0.0 0.0 0.0 0.0 0.0 0.0 0.0 0.0
0.1 0.0 0.1 0.2 2.4 2.6 0.7 1.4 1.1 0.0 0.2 0.6 0.0 0.0 0.0 0.0 0.0 0.0 0.0 0.0 0.0 0.0 0.0 0.0 0.0 0.0 0.0
0.0 0.1 0.5 0.3 0.3 1.4 1.5 0.9 0.3 0.1 0.1 2.0 0.1 0.1 0.0 0.0 0.0 0.0 0.0 0.0 0.0 0.0 0.0 0.0 0.0 0.0 0.0
0.2 0.1 0.0 0.0 0.0 1.0 2.1 2.5 1.7 0.0 0.0 0.8 0.2 0.0 0.0 0.0 0.0 0.0 0.0 0.0 0.0 0.0 0.0 0.0 0.0 0.0 0.0
0.0 0.0 0.0 0.0 0.0 0.1 2.3 8.7 4.1 3.5 0.0 3.9 1.1 1.2 7.0 0.5 0.0 0.0 0.0 0.0 0.0 0.0 0.0 0.0 0.0 0.3 0.6
0.0 0.0 0.0 0.0 0.1 0.1 0.7 6.5 12.0 8.1 0.0 7.6 10.2 3.9 9.9 5.5 2.2 2.0 0.0 0.0 0.9 0.7 0.3 0.6 0.6 0.7 2.6
0.0 0.1 0.2 0.2 0.1 0.1 0.2 0.7 1.6 6.2 2.0 3.9 18.3 7.4 14.0 9.9 3.0 2.0 2.4 2.6 3.6 6.4 6.5 3.6 1.2 0.8 0.5
0.4 0.3 0.2 0.1 0.2 0.3 0.0 0.0 0.0 1.8 2.3 3.1 7.8 8.5 11.2 10.8 6.2 2.5 4.3 1.7 5.5 8.0 5.4 4.3 4.0 3.2 3.7
2.2 1.4 1.4 2.1 3.1 2.9 4.7 3.2 5.4 3.5 3.5 3.9 5.7 7.8 10.4 4.2 6.9 4.4 3.8 7.7 4.4 5.2 4.3 3.2 2.0 2.1 2.6
4.4 5.7 4.6 3.9 3.3 3.3 4.6 5.7 7.7 4.2 5.0 5.2 4.3 4.8 4.3 4.6 7.6 3.0 4.0 4.6 5.8 6.9 5.4 4.7 4.1 3.8 1.8
5.4 5.9 7.7 6.7 5.9 4.9 4.8 6.8 7.5 4.6 5.0 5.2 7.0 7.0 4.7 2.5 2.8 7.1 5.3 5.6 6.3 6.0 5.6 8.3 6.2 5.5 0.3
6.6 6.8 7.8 7.5 6.6 6.6 5.8 5.9 5.2 4.0 4.3 5.2 7.8 11.7 15.0 6.3 3.4 3.3 12.3 9.0 5.8 5.3 4.5 5.1 7.7 6.1 1.1

GFSFLT2_prec_kuchsnow_192.txt.gz
Snowfall_Accumulation
0.0 0.2 0.2 0.3 0.1 0.0 0.0 0.0 0.0 0.0 0.0 0.0 0.0 0.0 0.0 0.0 0.0 0.0 0.0 0.0 0.0 0.0 0.0 0.0 0.0 0.0 0.0
0.1 0.9 1.6 1.0 0.4 0.1 0.0 0.0 0.0 0.0 0.0 0.0 0.0 0.0 0.0 0.0 0.0 0.0 0.0 0.0 0.0 0.0 0.0 0.0 0.0 0.0 0.0
0.5 0.9 0.5 0.2 0.1 0.1 0.0 0.0 0.0 0.0 0.0 0.0 0.0 0.0 0.0 0.0 0.0 0.0 0.0 0.0 0.0 0.0 0.0 0.0 0.0 0.0 0.0
0.3 0.8 0.7 0.2 0.2 0.1 0.1 0.0 0.0 0.0 0.0 0.0 0.0 0.0 0.0 0.0 0.0 0.0 0.0 0.0 0.0 0.0 0.0 0.0 0.0 0.0 0.0
2.0 1.3 0.4 0.1 0.1 0.0 0.0 0.0 0.2 0.0 0.0 0.0 0.0 0.0 0.0 0.0 0.0 0.0 0.0 0.0 0.0 0.0 0.0 0.0 0.0 0.0 0.0
3.7 0.5 0.0 0.0 0.0 0.0 1.8 1.2 1.2 0.0 0.1 0.1 0.0 0.0 0.0 0.0 0.0 0.0 0.0 0.0 0.0 0.0 0.0 0.0 0.0 0.0 0.0
0.1 0.0 0.1 0.2 2.4 2.6 0.7 1.4 1.1 0.0 0.2 0.6 0.0 0.0 0.0 0.0 0.0 0.0 0.0 0.0 0.0 0.0 0.0 0.0 0.0 0.0 0.0
0.0 0.1 0.5 0.3 0.3 1.4 1.5 0.9 0.3 0.1 0.1 2.0 0.1 0.1 0.0 0.0 0.0 0.0 0.0 0.0 0.0 0.0 0.0 0.0 0.0 0.0 0.0
0.2 0.1 0.0 0.0 0.0 1.0 2.1 2.5 1.7 0.0 0.0 0.8 0.2 0.0 0.0 0.0 0.0 0.0 0.0 0.0 0.0 0.0 0.0 0.0 0.0 0.0 0.0
0.0 0.0 0.0 0.0 0.0 0.1 2.3 8.7 4.1 3.5 0.0 3.9 1.1 1.2 7.0 0.5 0.0 0.0 0.0 0.0 0.0 0.0 0.0 0.0 0.0 0.3 0.6
0.0 0.0 0.0 0.0 0.1 0.1 0.7 6.5 12.1 8.2 0.0 7.6 10.2 3.9 9.9 5.5 2.2 2.0 0.0 0.0 0.9 0.7 0.3 0.6 0.6 0.7 2.6
0.0 0.1 0.2 0.2 0.1 0.1 0.2 0.7 1.6 6.2 2.0 3.9 18.7 7.5 14.0 9.9 3.0 2.0 2.4 2.6 3.6 6.4 6.5 3.6 1.2 0.8 0.5
0.4 0.3 0.2 0.1 0.2 0.3 0.0 0.0 0.0 1.8 2.3 3.1 7.8 8.7 11.5 10.9 6.2 2.5 4.3 1.7 5.5 8.0 5.4 4.3 4.0 3.2 3.7
2.2 1.4 1.4 2.1 3.1 2.9 4.7 3.2 5.5 3.5 3.5 3.9 5.7 8.0 10.5 4.3 7.0 4.5 3.8 7.7 4.4 5.2 4.3 3.2 2.0 2.1 2.6
4.4 5.8 4.6 3.9 3.3 3.3 4.6 5.8 7.7 4.2 5.0 5.2 4.3 5.2 4.6 4.7 7.7 3.1 4.1 4.7 5.8 6.9 5.4 4.7 4.1 3.8 1.8
5.4 5.9 7.7 6.7 6.0 4.9 4.8 6.8 7.6 4.6 5.0 5.2 7.0 7.0 5.1 2.7 2.9 7.2 5.3 5.6 6.3 6.1 5.6 8.4 6.2 5.5 0.3
6.6 6.8 7.8 7.5 6.6 6.6 5.8 5.9 5.3 4.1 4.3 5.2 7.8 11.7 15.4 6.6 3.5 3.3 12.3 9.0 5.9 5.4 4.5 5.1 7.7 6.1 1.1

GFSFLT2_prec_kuchsnow_195.txt.gz
Snowfall_Accumulation
0.0 0.2 0.2 0.3 0.1 0.0 0.0 0.0 0.0 0.0 0.0 0.0 0.0 0.0 0.0 0.0 0.0 0.0 0.0 0.0 0.0 0.0 0.0 0.0 0.0 0.0 0.0
0.1 0.9 1.6 1.0 0.4 0.1 0.0 0.0 0.0 0.0 0.0 0.0 0.0 0.0 0.0 0.0 0.0 0.0 0.0 0.0 0.0 0.0 0.0 0.0 0.0 0.0 0.0
0.5 0.9 0.5 0.2 0.1 0.1 0.0 0.0 0.0 0.0 0.0 0.0 0.0 0.0 0.0 0.0 0.0 0.0 0.0 0.0 0.0 0.0 0.0 0.0 0.0 0.0 0.0
0.3 0.8 0.7 0.2 0.2 0.1 0.1 0.0 0.0 0.0 0.0 0.0 0.0 0.0 0.0 0.0 0.0 0.0 0.0 0.0 0.0 0.0 0.0 0.0 0.0 0.0 0.0
2.0 1.3 0.4 0.1 0.1 0.0 0.0 0.0 0.2 0.0 0.0 0.0 0.0 0.0 0.0 0.0 0.0 0.0 0.0 0.0 0.0 0.0 0.0 0.0 0.0 0.0 0.0
3.7 0.5 0.0 0.0 0.0 0.0 1.8 1.2 1.2 0.0 0.1 0.1 0.0 0.0 0.0 0.0 0.0 0.0 0.0 0.0 0.0 0.0 0.0 0.0 0.0 0.0 0.0
0.1 0.0 0.1 0.2 2.4 2.6 0.7 1.4 1.1 0.0 0.2 0.6 0.0 0.0 0.0 0.0 0.0 0.0 0.0 0.0 0.0 0.0 0.0 0.0 0.0 0.0 0.0
0.0 0.1 0.5 0.3 0.3 1.4 1.5 0.9 0.3 0.1 0.1 2.0 0.1 0.1 0.0 0.0 0.0 0.0 0.0 0.0 0.0 0.0 0.0 0.0 0.0 0.0 0.0
0.2 0.1 0.0 0.0 0.0 1.0 2.1 2.5 1.9 0.0 0.0 0.8 0.2 0.0 0.0 0.0 0.0 0.0 0.0 0.0 0.0 0.0 0.0 0.0 0.0 0.0 0.0
0.0 0.0 0.0 0.0 0.0 0.1 2.3 8.7 4.1 3.8 0.0 3.9 1.1 1.2 7.0 0.5 0.0 0.0 0.0 0.0 0.0 0.0 0.0 0.0 0.0 0.3 0.6
0.0 0.0 0.0 0.0 0.1 0.1 0.7 6.5 12.1 8.2 0.0 7.6 10.6 3.9 10.0 5.5 2.2 2.0 0.0 0.0 0.9 0.7 0.3 0.6 0.6 0.7 2.6
0.0 0.1 0.2 0.2 0.1 0.1 0.2 0.7 1.6 6.2 2.0 3.9 19.7 7.8 14.5 10.2 3.1 2.0 2.4 2.6 3.6 6.4 6.5 3.6 1.2 0.8 0.5
0.4 0.3 0.2 0.1 0.2 0.3 0.0 0.0 0.0 1.8 2.3 3.1 7.8 9.5 12.7 11.9 6.7 2.6 4.3 1.7 5.5 8.0 5.4 4.3 4.0 3.2 3.7
2.2 1.4 1.4 2.1 3.1 3.0 4.7 3.2 5.5 3.5 3.5 3.9 5.7 8.0 11.0 4.7 7.6 4.9 4.0 7.9 4.4 5.2 4.3 3.2 2.0 2.1 2.6
4.4 5.8 4.6 3.9 3.3 3.4 4.6 5.8 7.8 4.2 5.0 5.2 4.3 5.2 5.0 5.1 8.3 3.3 4.3 4.9 5.8 6.9 5.4 4.7 4.1 3.8 1.8
5.4 5.9 7.7 6.8 6.0 4.9 4.8 6.8 7.6 4.6 5.0 5.2 7.0 7.0 5.1 2.7 2.9 7.5 5.6 5.7 6.4 6.2 5.8 8.5 6.2 5.5 0.3
6.6 6.8 7.8 7.5 6.6 6.6 5.8 5.9 5.3 4.1 4.3 5.2 7.9 11.8 15.5 6.6 3.5 3.4 12.7 9.2 6.2 5.6 4.7 5.2 7.7 6.1 1.1

GFSFLT2_prec_kuchsnow_198.txt.gz
Snowfall_Accumulation
0.0 0.2 0.2 0.3 0.1 0.0 0.0 0.0 0.0 0.0 0.0 0.0 0.0 0.0 0.0 0.0 0.0 0.0 0.0 0.0 0.0 0.0 0.0 0.0 0.0 0.0 0.0
0.1 0.9 1.6 1.0 0.4 0.1 0.0 0.0 0.0 0.0 0.0 0.0 0.0 0.0 0.0 0.0 0.0 0.0 0.0 0.0 0.0 0.0 0.0 0.0 0.0 0.0 0.0
0.5 0.9 0.5 0.2 0.1 0.1 0.0 0.0 0.0 0.0 0.0 0.0 0.0 0.0 0.0 0.0 0.0 0.0 0.0 0.0 0.0 0.0 0.0 0.0 0.0 0.0 0.0
0.3 0.8 0.7 0.2 0.2 0.1 0.1 0.0 0.0 0.0 0.0 0.0 0.0 0.0 0.0 0.0 0.0 0.0 0.0 0.0 0.0 0.0 0.0 0.0 0.0 0.0 0.0
2.0 1.3 0.4 0.1 0.1 0.0 0.0 0.0 0.2 0.0 0.0 0.0 0.0 0.0 0.0 0.0 0.0 0.0 0.0 0.0 0.0 0.0 0.0 0.0 0.0 0.0 0.0
3.7 0.5 0.0 0.0 0.0 0.0 1.8 1.2 1.2 0.0 0.1 0.1 0.0 0.0 0.0 0.0 0.0 0.0 0.0 0.0 0.0 0.0 0.0 0.0 0.0 0.0 0.0
0.1 0.0 0.1 0.2 2.4 2.6 0.7 1.4 1.1 0.0 0.2 0.6 0.0 0.0 0.0 0.0 0.0 0.0 0.0 0.0 0.0 0.0 0.0 0.0 0.0 0.0 0.0
0.0 0.1 0.5 0.3 0.3 1.4 1.5 0.9 0.3 0.1 0.1 2.2 0.1 0.1 0.0 0.0 0.0 0.0 0.0 0.0 0.0 0.0 0.0 0.0 0.0 0.0 0.0
0.2 0.1 0.0 0.0 0.0 1.0 2.1 2.5 2.1 0.0 0.0 0.8 0.2 0.0 0.0 0.0 0.0 0.0 0.0 0.0 0.0 0.0 0.0 0.0 0.0 0.0 0.0
0.0 0.0 0.0 0.0 0.0 0.1 2.3 9.1 4.6 4.0 0.0 4.0 1.1 1.3 7.4 0.5 0.0 0.0 0.0 0.0 0.0 0.0 0.0 0.0 0.0 0.3 0.6
0.0 0.0 0.0 0.0 0.1 0.1 0.7 6.5 12.3 8.2 0.0 7.6 11.0 3.9 10.9 6.0 2.2 2.0 0.0 0.0 0.9 0.7 0.3 0.6 0.6 0.7 2.6
0.0 0.1 0.2 0.2 0.1 0.1 0.2 0.7 1.6 6.2 2.0 3.9 20.4 8.4 15.5 11.1 3.5 2.0 2.4 2.7 3.6 6.4 6.5 3.6 1.2 0.8 0.5
0.4 0.3 0.2 0.1 0.2 0.3 0.0 0.0 0.0 1.8 2.3 3.1 8.0 9.7 12.7 12.6 7.3 3.0 4.9 2.0 5.6 8.0 5.4 4.3 4.0 3.2 3.7
2.2 1.4 1.4 2.1 3.1 3.0 4.7 3.2 5.5 3.5 3.5 3.9 5.7 8.0 11.1 4.8 7.9 5.3 4.0 8.5 4.6 5.2 4.3 3.2 2.0 2.1 2.6
4.4 5.8 4.6 3.9 3.3 3.4 4.6 5.8 7.8 4.2 5.0 5.2 4.3 5.3 5.0 5.1 8.5 3.5 4.7 5.3 6.0 7.1 5.6 4.9 4.1 3.8 1.8
5.4 5.9 7.7 6.8 6.0 5.0 4.9 6.9 7.6 4.6 5.0 5.2 7.0 7.1 5.1 2.7 2.9 7.5 6.0 6.0 6.6 6.5 6.2 8.9 6.4 5.6 0.3
6.6 6.8 7.8 7.5 6.6 6.6 5.8 5.9 5.3 4.1 4.3 5.2 7.9 12.0 15.7 6.6 3.5 3.4 13.0 9.5 6.6 6.1 5.2 5.7 7.9 6.2 1.1